ECMWFNIL_con_mucape_021.txt.gz
CAPE
5 0 0 0 0 0 0 0 0 5 15 0 0 0 0 0 0 0 0 0 7 33 16 5 19 196 358 408 462 430 125 65 348 210 0 0 0 0 0 0 0 0
38 16 33 0 0 0 0 0 44 20 1 0 0 0 0 0 0 0 0 0 0 0 0 0 0 0 0 0 176 56 0 0 187 160 0 0 0 0 0 0 0 0
96 23 0 0 0 0 28 64 12 0 0 0 0 0 0 0 0 0 0 0 0 0 0 0 0 0 0 0 0 0 0 0 0 0 0 0 0 0 0 0 0 0
98 48 0 0 0 0 0 0 0 0 0 0 0 0 0 0 0 0 0 3 0 0 0 0 0 0 0 0 0 0 0 0 0 0 0 0 0 0 0 0 0 0
75 35 1 0 0 0 0 0 0 0 0 0 0 0 0 0 0 0 0 0 0 0 0 0 0 0 0 0 0 0 0 0 0 0 0 0 0 0 0 0 0 0
6 1 0 0 0 0 0 0 0 0 0 0 0 0 0 0 0 0 0 0 0 0 0 0 0 0 0 0 0 0 0 0 0 0 0 0 0 0 0 0 0 0
0 0 0 0 0 0 0 0 0 0 0 0 0 0 0 0 0 0 0 0 0 0 0 0 0 0 0 0 0 0 0 0 0 0 0 0 0 0 0 0 0 0
0 0 0 0 0 0 0 0 0 0 0 0 0 0 0 0 0 0 0 0 0 0 0 0 0 0 0 0 0 0 0 0 0 0 0 0 0 0 0 0 0 0
0 0 0 0 120 211 228 206 173 0 0 0 0 0 0 0 0 0 0 0 0 0 0 0 0 0 0 0 0 0 0 0 0 0 0 0 0 0 0 0 0 0
348 455 478 473 430 390 359 312 231 0 0 0 0 0 0 0 0 0 0 0 0 0 0 0 0 0 0 0 0 0 0 0 0 0 0 0 0 0 0 0 0 0
530 581 606 570 593 504 497 371 0 0 0 0 0 0 0 0 0 0 0 0 0 0 0 0 0 0 0 0 0 0 0 0 0 0 0 0 0 0 0 0 0 0
756 756 635 562 475 524 477 177 0 0 0 0 0 0 0 0 0 0 0 0 0 0 0 0 0 0 0 0 0 0 0 0 0 0 0 0 0 0 0 0 0 0
818 714 614 454 418 375 146 0 0 0 0 0 0 0 0 0 0 0 0 0 0 0 0 0 0 0 0 0 0 0 0 0 0 2 7 0 0 0 0 0 0 0
824 667 593 481 424 489 450 256 26 16 10 7 8 0 0 0 0 0 0 0 0 0 0 0 0 0 0 0 0 0 0 4 0 8 6 34 0 66 5 0 17 14
969 977 914 782 473 400 415 482 437 280 198 70 101 61 0 0 0 0 0 0 0 0 0 0 0 0 0 0 0 0 0 0 4 0 0 189 199 275 280 264 162 0
936 954 808 652 596 534 461 430 389 339 465 397 158 115 52 0 0 0 0 0 0 0 0 0 0 0 0 0 0 0 0 1 65 12 29 178 336 360 345 340 256 9
817 780 634 612 576 606 592 476 433 557 504 496 443 511 312 277 309 53 50 4 0 0 0 0 0 0 0 0 0 0 0 15 86 186 287 196 375 356 409 410 393 1
556 599 543 612 558 530 551 475 466 482 510 532 513 568 610 504 294 357 376 192 125 35 4 1 0 0 0 0 0 0 7 298 421 440 490 93 396 376 392 429 389 300
339 194 232 275 399 464 562 472 432 385 473 591 629 810 721 729 563 318 407 579 467 297 28 2 0 0 0 0 0 0 27 434 548 546 576 563 458 36 0 364 325 0
157 102 142 153 114 264 443 498 497 587 551 581 715 812 674 620 664 588 451 466 563 594 564 425 453 390 0 0 0 0 534 584 619 650 662 651 642 586 499 258 0 0
0 0 20 41 0 0 0 1 241 255 604 738 685 655 622 649 688 728 655 490 493 598 567 517 540 509 469 170 0 0 475 653 688 723 723 720 677 709 692 573 479 347
2 0 0 0 0 0 0 0 0 0 0 0 432 579 658 669 647 634 671 734 704 638 624 593 559 513 501 512 498 438 368 577 669 699 733 716 660 525 227 116 3 13
0 0 0 0 0 0 0 0 0 0 0 0 0 0 157 857 791 726 701 711 743 762 724 638 609 602 537 536 559 566 490 413 518 585 606 575 514 304 8 132 84 2
0 0 0 0 0 0 0 0 0 0 0 0 0 0 0 0 0 124 624 730 777 795 740 701 709 680 694 684 603 554 526 423 70 468 511 490 423 262 0 0 0 0
0 0 0 0 0 0 0 1 3 4 2 0 0 0 0 0 0 0 233 606 766 767 765 752 700 654 654 659 672 654 588 527 489 383 243 393 322 0 0 11 44 118
0 0 0 0 0 1 1 0 0 0 0 0 0 0 0 0 0 0 0 152 624 740 763 741 662 633 574 551 555 538 502 469 423 385 0 394 228 0 0 0 0 0

ECMWFNIL_con_mucape_024.txt.gz
CAPE
0 0 0 0 0 0 0 0 0 0 0 0 0 0 0 0 0 0 0 0 0 0 0 397 552 616 623 587 608 741 831 783 684 506 442 389 393 340 314 431 512 501
0 0 0 0 0 0 0 0 0 0 0 0 0 0 0 0 0 0 0 0 0 0 0 386 612 657 677 689 674 670 704 720 564 141 0 0 0 0 51 98 82 0
0 0 0 0 0 0 0 0 0 0 0 0 0 0 0 0 0 0 0 0 0 0 0 124 408 514 585 559 535 549 524 466 57 0 0 0 0 0 0 0 0 0
0 0 0 0 0 0 0 0 0 0 0 0 0 0 0 0 0 0 0 0 0 0 0 0 0 0 0 0 0 324 352 108 0 0 0 0 0 0 0 0 0 0
0 0 0 0 0 0 0 0 0 0 0 0 0 0 0 0 0 0 0 0 0 0 0 0 0 0 0 0 0 0 93 0 0 0 0 0 0 0 0 0 0 0
0 0 0 0 0 0 0 0 0 0 0 0 0 0 0 0 0 0 0 0 0 0 0 0 0 0 0 0 0 0 0 0 0 0 0 0 0 0 0 0 0 0
0 0 0 0 0 0 0 0 0 0 0 0 0 0 0 0 0 0 0 0 0 0 0 0 0 0 0 0 0 0 0 0 0 0 0 0 0 0 0 0 0 0
0 0 0 0 0 0 0 0 0 0 0 0 0 0 0 0 0 0 0 0 0 0 0 0 0 0 0 0 0 0 0 0 0 0 0 0 0 0 0 0 0 0
29 33 0 0 0 0 0 0 0 0 0 0 0 0 0 0 0 0 0 0 0 0 0 0 0 0 0 0 0 0 0 0 0 0 0 0 0 0 0 0 0 0
341 187 0 0 12 222 230 154 13 0 0 0 0 0 0 0 0 0 0 0 0 0 0 0 0 0 0 0 0 0 0 0 0 0 0 0 0 0 0 0 0 0
509 269 124 323 359 358 302 258 172 0 0 0 0 0 0 0 0 0 0 0 0 0 0 0 0 0 0 0 0 0 0 0 0 0 0 0 0 0 0 0 0 0
592 396 463 475 347 260 282 282 174 0 0 0 0 0 0 0 0 0 0 0 0 0 0 0 0 0 0 0 0 0 0 0 0 0 0 0 0 0 0 0 0 0
402 483 523 432 399 270 305 262 106 0 0 0 0 0 0 0 0 0 0 0 0 0 0 0 0 0 0 0 0 0 0 0 0 0 0 0 0 0 0 0 0 0
429 35 360 411 348 388 337 212 0 0 0 0 0 0 0 0 0 0 0 0 0 0 0 0 0 0 0 0 0 0 0 0 0 0 0 0 0 0 0 0 0 0
284 180 383 390 332 311 244 244 0 0 0 0 0 0 0 0 0 0 0 0 0 0 0 0 0 0 0 0 0 0 0 0 0 0 0 0 0 0 0 0 0 0
292 382 448 384 412 366 352 346 279 92 0 0 0 0 0 0 0 0 0 0 0 0 0 0 0 0 0 0 0 0 0 0 0 0 0 0 0 0 0 0 0 0
524 520 471 280 374 456 396 441 357 305 327 360 396 0 0 0 0 0 0 0 0 0 0 0 0 0 0 0 0 0 0 0 0 0 0 0 0 0 0 0 0 0
506 475 394 330 247 54 431 502 452 434 405 428 514 559 491 173 0 0 148 0 0 0 0 0 0 0 0 0 0 0 0 0 0 0 0 0 0 0 0 0 0 0
413 387 414 413 348 411 467 506 495 474 441 443 557 618 558 599 619 544 96 229 137 0 0 0 0 0 0 0 0 0 0 0 0 0 0 0 0 0 0 0 0 0
238 205 313 349 324 331 369 401 436 428 417 449 432 535 560 559 563 569 586 519 285 409 344 235 0 0 0 0 0 0 0 0 2 3 1 2 2 251 332 276 0 238
107 96 134 174 182 253 322 352 189 132 144 319 466 510 511 462 484 497 490 437 463 408 440 459 519 484 431 372 68 0 0 0 0 0 0 0 0 278 392 413 385 404
107 67 2 0 0 0 0 0 0 0 87 188 250 326 371 437 434 312 205 339 476 429 536 585 545 524 552 564 543 504 388 196 41 0 0 0 0 340 462 483 480 434
22 21 7 5 0 0 0 0 0 0 0 0 0 0 0 0 0 0 0 0 0 104 477 537 602 624 631 622 588 594 577 542 425 195 269 565 624 616 612 605 596 552
12 28 37 17 2 0 0 0 0 0 0 0 0 0 0 0 0 0 0 0 0 0 0 68 536 598 615 634 633 637 611 647 613 322 295 445 697 806 837 829 811 758
13 34 20 1 3 0 0 0 0 0 0 0 0 0 0 0 0 0 0 0 0 0 0 0 0 342 643 667 660 641 609 579 585 589 601 597 545 573 683 753 783 791
3 8 10 11 6 0 0 0 0 0 0 0 0 0 0 0 0 0 0 0 0 0 0 0 0 0 92 558 640 613 593 601 582 536 528 544 566 569 567 517 473 494

ECMWFNIL_con_mucape_027.txt.gz
CAPE
177 139 0 5 100 112 0 0 0 0 0 0 0 0 0 0 0 0 0 0 0 345 380 404 414 454 516 574 590 568 522 603 652 621 514 444 328 296 363 583 543 581
343 49 0 0 113 75 0 0 0 0 0 0 0 0 0 0 0 0 0 0 0 0 391 430 460 457 504 550 590 595 638 684 684 619 538 444 345 307 341 423 501 559
205 0 0 0 0 0 0 0 0 0 0 0 0 0 0 0 0 0 0 0 0 0 380 467 521 547 501 517 658 699 702 642 508 393 338 278 187 197 256 463 561 572
0 0 0 0 0 0 0 0 0 0 0 0 0 0 0 0 0 0 0 0 0 0 417 564 611 614 598 580 604 634 641 526 0 0 0 0 0 0 0 83 94 0
0 0 0 0 0 0 0 0 0 0 0 0 0 0 0 0 0 0 0 0 0 42 366 512 591 596 520 492 529 462 376 0 0 0 0 0 0 0 0 0 0 0
0 0 0 0 0 0 0 0 0 0 0 0 0 0 0 0 0 0 0 0 0 0 37 45 235 36 38 228 284 261 126 0 0 0 0 0 0 0 0 0 0 0
0 0 1 0 0 0 0 0 0 0 0 0 0 0 0 0 0 0 0 0 0 0 0 0 0 0 0 0 120 186 0 0 0 0 0 0 0 0 0 0 0 0
0 0 0 0 0 0 0 0 0 0 0 0 0 0 0 0 0 0 0 0 0 0 0 0 0 0 0 0 0 0 0 0 0 0 0 0 0 0 0 0 0 0
0 0 0 0 0 0 0 0 0 39 0 0 0 0 0 0 0 0 0 0 0 0 0 0 0 0 0 0 0 0 0 0 0 0 0 0 0 0 0 0 0 0
5 7 0 0 0 0 0 0 0 0 0 0 0 0 0 0 0 0 0 0 0 0 0 0 0 0 0 0 0 0 0 0 0 0 0 0 0 0 0 0 0 0
29 39 4 0 0 0 0 0 0 0 0 0 0 0 0 0 0 0 0 0 0 0 0 0 0 0 0 0 0 0 0 0 0 0 0 0 0 0 0 0 0 0
31 35 0 0 0 110 0 0 0 0 0 0 0 0 0 0 0 0 0 0 0 0 0 0 0 0 0 0 0 0 0 0 0 0 0 0 0 0 0 0 0 0
14 165 42 0 0 0 0 0 0 0 0 0 0 0 0 0 0 0 0 0 0 0 0 0 0 0 0 0 0 0 0 0 0 0 0 0 0 0 0 0 0 0
29 0 0 0 0 0 0 0 0 0 0 0 0 0 0 0 0 0 0 0 0 0 0 0 0 0 0 0 0 0 0 0 0 0 0 0 0 0 0 0 0 0
18 0 0 0 0 0 63 0 0 0 0 0 0 0 0 0 0 0 0 0 0 0 0 0 0 0 0 0 0 0 0 0 0 0 0 0 0 0 0 0 0 0
0 0 0 0 0 0 0 71 76 0 0 0 0 0 0 0 0 0 0 0 0 0 0 0 0 0 0 0 0 0 0 0 0 0 0 0 0 0 0 0 0 0
165 0 0 0 0 0 0 0 34 0 0 0 0 0 0 0 0 0 0 0 0 0 0 0 0 0 0 0 0 0 0 0 0 0 0 0 0 0 0 0 0 0
222 87 0 113 272 267 260 288 166 272 273 168 155 125 83 0 0 0 0 0 0 0 0 0 0 0 0 0 0 0 0 0 0 0 0 0 0 0 0 0 0 0
163 76 17 276 365 358 323 334 196 224 291 397 475 481 478 539 490 290 26 155 98 0 0 0 0 0 0 0 0 0 0 0 0 0 0 0 0 0 0 0 0 0
242 263 296 358 356 386 382 311 269 250 329 281 404 514 524 528 534 464 421 393 383 237 198 213 0 0 0 0 0 0 0 0 0 0 0 0 0 0 0 0 0 0
249 328 304 356 315 274 212 212 255 304 327 252 404 471 469 485 482 441 416 381 371 365 356 357 366 382 425 397 76 45 0 0 0 0 0 0 0 0 0 0 0 0
124 160 255 265 265 267 264 295 335 372 403 398 399 430 409 397 394 397 417 411 383 373 374 386 399 466 503 524 524 509 495 427 339 210 0 0 0 0 0 0 0 0
90 237 204 241 297 272 170 331 297 282 277 294 329 366 382 374 351 337 331 322 333 342 350 366 404 419 427 447 475 525 552 568 567 554 514 413 306 83 0 0 0 0
27 0 101 17 2 2 10 8 27 27 0 0 0 30 177 189 193 228 235 244 234 222 218 233 302 369 422 440 442 414 470 546 593 577 588 624 656 613 447 231 0 0
0 0 0 0 2 0 4 3 4 4 2 0 0 0 0 0 0 0 0 0 0 0 0 0 0 0 77 195 223 225 209 233 426 495 540 581 584 571 586 531 373 447
0 0 0 0 0 1 1 0 0 0 0 2 0 0 0 0 0 0 0 0 0 0 0 0 0 0 0 0 0 0 0 0 0 0 61 404 459 480 461 510 537 544

ECMWFNIL_con_mucape_030.txt.gz
CAPE
622 464 506 556 475 377 311 0 0 0 0 0 0 0 0 0 0 0 0 0 0 0 0 168 421 436 467 560 768 968 836 608 518 539 463 426 395 379 404 407 417 532
654 442 482 506 471 379 169 0 0 0 0 0 0 0 0 0 0 0 0 0 0 0 0 418 480 549 602 623 698 799 636 476 472 528 550 474 462 359 326 425 472 537
712 489 471 381 403 389 283 0 0 0 0 0 0 0 0 0 0 0 0 0 0 0 98 365 440 460 514 582 628 643 616 568 677 684 617 531 425 346 328 448 618 634
560 486 216 0 0 238 240 0 0 0 0 0 0 0 0 0 0 0 0 0 0 0 0 110 454 530 514 546 642 652 684 699 676 609 501 413 191 0 273 466 490 585
396 135 0 0 0 215 149 0 0 0 0 0 0 0 0 0 0 0 0 0 0 0 69 483 552 567 562 558 612 666 672 599 374 69 0 0 0 0 238 481 578 634
88 0 0 0 0 0 0 0 0 0 0 0 0 0 0 0 0 0 0 0 0 0 46 506 584 584 501 515 513 529 460 0 0 0 0 0 0 0 0 48 62 223
0 0 0 0 0 0 0 0 0 0 0 0 0 0 0 0 0 0 0 0 0 0 0 178 302 0 0 286 286 184 0 0 0 0 0 0 0 0 0 0 0 0
0 0 0 0 0 0 0 0 0 0 0 0 0 0 0 0 0 0 0 0 0 0 0 0 0 0 0 0 204 184 0 0 0 0 0 0 0 0 0 0 0 0
0 0 0 0 0 0 0 0 0 0 0 0 0 0 0 0 0 0 0 0 0 0 0 0 0 0 0 0 0 0 0 0 0 0 0 0 0 0 0 0 0 0
0 0 0 0 0 0 0 0 0 0 0 0 0 0 0 0 0 0 0 0 0 0 0 0 0 0 0 0 0 0 0 0 0 0 0 0 0 0 0 0 0 0
0 0 0 0 0 0 0 0 0 0 0 0 0 0 0 0 0 0 0 0 0 0 0 0 0 0 0 0 0 0 0 0 0 0 0 0 0 0 0 0 0 0
0 0 0 0 0 0 0 0 0 0 0 0 0 0 0 0 0 0 0 0 0 0 0 0 0 0 0 0 0 0 0 0 0 0 0 0 0 0 0 0 0 0
0 0 0 0 0 0 0 0 0 0 0 0 0 0 0 0 0 0 0 0 0 0 0 0 0 0 0 0 0 0 0 0 0 0 0 0 0 0 0 0 0 0
23 30 30 39 29 0 0 0 0 0 0 0 0 0 0 0 0 0 0 0 0 0 0 0 0 0 0 0 0 0 0 0 0 0 0 0 0 0 0 0 0 0
7 0 0 21 28 7 0 0 0 0 0 0 0 0 0 0 0 0 0 0 0 0 0 0 0 0 0 0 0 0 0 0 0 0 0 0 0 0 0 0 0 0
0 3 10 27 26 26 0 0 0 0 0 0 0 0 0 0 0 0 0 0 0 0 0 0 0 0 0 0 0 0 0 0 0 0 0 0 0 0 0 0 0 0
0 0 0 13 0 0 0 0 0 0 0 0 0 0 0 0 0 0 0 0 0 0 0 0 0 0 0 0 0 0 0 0 0 0 0 0 0 0 0 0 0 0
0 0 0 0 0 0 0 0 0 0 0 0 0 0 0 0 0 0 0 0 0 0 0 0 0 0 0 0 0 0 0 0 0 0 0 0 0 0 0 0 0 0
0 0 0 27 0 0 0 0 0 0 11 82 153 131 71 0 0 0 0 0 0 0 0 0 0 0 0 0 0 0 0 0 0 0 0 0 0 0 0 0 0 0
44 55 0 0 0 0 139 64 49 176 223 243 253 303 296 168 125 14 0 0 0 0 0 0 0 0 0 0 0 0 0 0 0 0 0 0 0 0 0 0 0 0
150 150 12 0 0 102 194 227 182 121 193 228 250 300 299 288 215 197 0 0 0 0 0 0 0 0 0 0 0 0 0 0 0 0 0 0 0 0 0 0 0 0
167 182 114 0 62 78 154 205 302 226 183 221 233 271 300 290 288 229 228 161 135 153 154 175 173 177 127 95 0 0 0 175 230 235 330 338 340 267 34 0 0 0
0 125 104 0 2 105 45 192 337 277 191 189 208 222 280 315 315 292 261 248 264 248 207 180 176 171 202 222 247 263 274 300 334 364 383 398 426 445 450 468 479 326
42 34 48 0 0 0 0 74 197 158 140 205 245 253 293 346 328 314 290 268 257 266 274 267 254 242 244 251 255 282 288 305 313 317 338 358 398 426 463 494 508 536
9 6 3 6 3 5 9 7 1 0 51 124 111 59 49 172 265 269 280 265 259 250 238 223 204 27 0 22 116 126 136 222 247 0 194 326 334 350 384 397 422 457
0 7 3 6 0 0 1 8 7 6 37 12 0 5 7 45 0 0 0 0 0 0 0 0 0 0 0 0 0 0 0 0 0 0 0 0 1 1 9 12 254 294

ECMWFNIL_con_mucape_033.txt.gz
CAPE
1137 1368 1394 1481 1438 1352 1129 973 911 1032 1068 1044 973 942 732 723 380 587 600 602 680 972 941 787 797 1015 1202 1327 1403 1126 852 779 775 1094 1092 1145 1146 1118 1250 1203 1277 1183
993 1173 1063 1259 1060 892 1096 1184 883 914 911 882 997 820 621 467 361 553 796 856 795 962 959 983 992 1040 1075 974 1003 1343 1228 1105 1218 657 1115 1045 1117 1048 1214 1283 1283 1250
821 943 966 1054 1037 957 927 783 790 853 813 663 659 848 601 410 208 304 630 974 1023 1036 1133 1157 1165 1106 1143 1204 1260 1348 1270 1197 1103 850 1054 1054 1139 1165 1343 1285 1201 1152
837 890 892 1049 1038 945 722 526 452 498 537 498 715 685 479 148 206 385 600 526 881 824 827 946 1100 965 865 889 1027 1056 967 1000 894 936 1107 966 1034 1103 1103 1098 1203 1090
816 612 654 719 771 744 592 614 482 500 586 677 473 320 207 95 149 240 488 515 585 562 597 621 615 645 517 558 702 726 597 656 667 596 736 688 514 699 786 923 1132 1273
768 678 455 454 492 514 546 590 463 418 356 349 512 224 203 115 103 184 378 417 338 393 424 502 553 556 542 572 624 633 638 539 522 358 239 253 166 176 332 664 1007 1198
737 732 505 410 384 508 562 486 330 260 291 387 107 130 23 37 50 83 106 138 152 215 460 520 558 502 498 504 523 508 307 188 0 0 0 0 0 0 260 471 612 727
526 461 351 256 424 416 518 302 230 200 119 36 192 1 0 0 0 24 32 22 38 58 59 42 2 0 0 15 0 0 0 0 0 0 0 0 0 0 0 9 52 83
292 176 121 256 414 407 420 130 94 19 1 142 28 0 0 0 0 0 0 0 0 0 0 0 0 0 0 5 36 8 0 0 0 1 4 3 7 0 0 0 0 0
217 105 178 226 318 311 320 116 20 0 0 24 0 0 0 0 0 0 0 0 0 0 0 0 0 0 0 0 0 5 1 0 0 0 17 83 13 0 0 0 20 25
102 83 173 218 248 200 208 48 6 0 0 0 0 0 0 0 0 0 0 0 0 0 0 0 0 0 0 0 4 34 26 0 0 0 5 8 25 0 0 7 8 85
12 2 0 0 0 0 0 2 0 0 0 0 0 0 0 0 0 0 0 0 0 0 0 0 0 0 0 0 0 0 7 29 9 2 0 0 0 0 0 1 36 6
5 0 0 0 0 0 0 0 0 0 0 0 0 0 0 0 0 0 0 0 0 0 0 0 0 0 0 0 0 0 0 2 5 8 3 5 0 0 0 0 0 0
1 0 0 0 0 0 0 0 0 0 0 0 0 0 0 0 0 0 0 0 0 0 0 0 0 0 0 0 0 0 0 1 4 25 3 13 11 0 0 0 0 0
0 0 0 0 0 4 0 0 0 0 0 0 0 0 2 0 0 0 0 0 0 0 0 0 0 0 0 0 0 0 0 0 2 0 2 1 8 10 8 0 0 0
1 0 0 0 0 0 0 0 0 1 1 0 0 0 0 0 0 0 0 0 0 0 0 0 0 0 0 0 0 0 0 0 4 26 0 6 5 31 64 17 12 7
18 1 0 0 0 0 0 0 0 0 0 0 0 0 0 0 0 0 0 0 0 0 0 0 1 2 0 0 0 0 0 0 0 20 63 109 72 88 68 61 48 0
0 13 1 0 6 17 21 11 0 0 0 0 0 0 0 0 0 0 0 2 1 0 0 0 1 0 0 0 0 0 0 0 0 0 0 13 82 58 40 67 58 156
0 0 2 4 9 9 5 0 0 0 0 0 0 0 0 0 0 0 0 0 0 0 0 0 0 0 0 0 0 0 0 0 0 0 0 1 1 0 2 12 94 137
0 3 2 0 2 0 0 0 0 0 0 0 0 0 0 0 0 0 0 0 0 0 0 0 0 0 0 0 0 0 0 0 0 0 0 0 3 3 31 60 78 70
22 0 0 0 0 0 0 0 0 0 0 0 0 0 0 0 0 0 0 0 0 0 0 0 0 0 0 0 0 0 0 1 36 44 105 91 36 7 4 3 19 49
3 0 0 0 0 0 0 0 0 3 0 0 0 0 0 0 0 0 0 0 0 0 0 0 0 0 0 0 0 0 0 0 0 4 13 84 126 79 42 56 31 43
0 0 2 0 0 1 6 22 32 3 0 0 4 17 41 38 29 26 5 16 20 9 0 0 0 0 0 0 0 0 0 0 0 0 0 0 0 0 145 170 265 277
1 0 1 0 1 1 3 3 2 45 11 0 36 31 39 64 55 60 70 43 37 51 76 94 29 0 0 0 0 0 0 0 0 0 0 0 0 0 37 239 245 251
3 0 1 4 8 18 6 13 0 0 2 9 46 118 161 162 121 79 93 134 150 131 108 121 131 112 83 0 0 0 0 0 0 0 0 0 0 0 0 19 154 162
0 0 0 0 0 1 1 2 1 0 0 0 0 11 2 9 76 86 66 146 153 80 23 26 12 0 0 0 0 0 0 0 0 0 0 0 0 0 0 0 0 0

ECMWFNIL_con_mucape_036.txt.gz
CAPE
1715 1653 1543 1646 1505 1479 1415 1130 996 936 791 688 724 697 684 694 698 633 639 682 901 1015 1071 1021 1855 1749 1486 1450 1659 1231 1409 1562 1536 1636 1524 1620 1679 1574 1568 1385 637 463
1712 1571 1419 1328 1316 1166 1077 1033 903 806 810 767 820 672 832 630 652 584 625 639 873 890 1053 963 1120 1640 1826 1583 1300 1582 1424 1430 1713 1421 1731 1759 1640 1291 1382 1372 903 410
1634 1448 1294 1184 1168 1201 1056 942 879 772 712 803 782 610 616 603 560 444 502 470 553 791 1130 1109 1075 1029 952 1378 1740 1685 1384 1569 1179 1385 1658 1689 1281 1208 1046 969 955 1508
1593 1293 1113 1173 1138 1149 968 879 852 793 732 659 528 470 537 519 407 405 374 426 368 682 936 959 1093 876 655 732 1207 1630 1245 1095 946 1458 1614 1682 900 851 1010 1603 1387 1462
1744 1478 1201 921 821 858 835 798 762 685 631 566 552 438 412 388 325 275 297 282 261 346 486 571 792 855 813 753 764 1099 1661 1389 1666 1650 1615 1854 1650 1610 1680 1534 1735 1647
1728 1445 1128 1033 990 976 863 807 660 691 643 572 504 308 375 344 272 297 193 202 231 232 447 500 591 762 746 744 848 933 1314 1430 1567 1676 1616 1357 896 1097 1252 1447 1787 1750
1652 1441 1213 1122 958 904 823 774 681 627 550 519 415 402 330 273 214 200 125 154 167 226 543 698 733 765 662 685 536 948 578 470 675 693 429 312 344 654 606 1269 1592 1600
1849 1672 1406 1084 1087 866 782 847 736 658 711 504 499 433 278 181 161 154 41 89 136 204 282 290 383 483 595 504 379 422 507 492 347 184 124 112 292 280 810 1166 1661 1628
1803 1594 1263 1207 1046 817 872 648 645 763 545 533 492 418 325 185 100 0 53 114 126 147 128 184 173 300 275 147 74 62 22 28 41 83 137 176 261 95 17 156 272 654
1606 1310 1312 933 827 773 784 780 732 644 561 502 384 297 123 114 0 0 17 109 92 88 114 72 80 126 92 20 0 0 0 0 26 71 55 33 1 0 0 0 22 40
1566 1337 1061 770 732 696 865 821 706 596 565 480 371 188 53 7 0 0 0 26 44 13 7 4 7 10 36 61 96 42 0 0 0 1 8 0 0 0 0 2 14 55
1352 1339 1112 995 957 980 992 706 564 533 504 414 124 56 12 0 0 0 0 0 0 0 2 5 1 0 1 0 20 39 27 5 0 0 0 0 0 0 0 3 11 11
1096 1209 1164 1159 1214 1169 983 555 543 479 330 126 36 8 0 0 0 0 0 0 0 0 0 0 0 0 0 0 0 1 14 29 44 5 0 0 0 0 0 0 0 14
634 622 553 486 427 383 429 571 518 294 79 5 0 0 0 0 0 0 0 0 0 0 0 0 0 0 0 0 0 0 0 10 64 64 17 7 3 0 0 0 0 0
189 435 398 235 153 193 202 151 152 144 38 0 0 0 0 0 0 0 0 0 0 0 0 0 33 150 0 0 0 0 0 0 7 41 51 44 16 0 0 0 0 0
88 192 208 121 42 44 51 91 147 120 53 0 0 0 0 0 0 0 0 0 0 0 1 42 7 0 0 0 0 0 0 0 0 35 20 7 0 0 0 0 0 0
0 0 0 0 0 0 0 4 12 58 133 262 245 1 90 7 3 0 0 0 0 0 0 0 0 0 0 0 0 0 181 24 6 0 0 3 7 18 12 5 3 0
0 0 0 0 0 0 0 0 1 0 0 2 16 1 267 335 195 116 72 74 4 0 0 0 0 0 0 0 0 0 0 2 2 4 14 78 90 43 31 22 18 32
0 0 0 0 0 0 0 0 0 0 0 0 0 1 10 46 113 51 0 0 0 0 0 0 0 0 0 0 0 0 0 26 17 5 6 26 37 20 101 117 258 237
0 3 0 0 0 1 0 0 1 0 0 2 0 0 0 0 0 0 0 0 0 0 0 0 0 0 0 0 0 0 0 58 152 170 164 150 112 145 159 168 168 78
0 1 0 0 0 0 0 0 2 2 1 2 0 0 0 0 0 0 0 0 0 0 0 0 0 0 0 0 0 0 0 15 656 675 370 519 597 865 802 820 777 778
5 0 0 0 3 2 2 0 0 0 0 0 0 0 0 0 0 0 0 0 0 0 0 0 0 0 0 0 0 0 0 10 191 345 506 694 802 903 885 970 1002 1037
6 4 3 0 4 7 1 0 0 0 0 0 0 0 1 0 0 0 0 0 1 0 0 0 0 0 0 0 0 0 0 0 0 1 26 64 170 124 392 472 483 39
3 0 2 3 9 7 1 1 1 0 0 0 0 0 2 0 0 0 0 2 8 16 22 25 0 0 0 0 0 0 0 0 0 0 0 0 0 0 0 38 0 0
4 0 0 0 0 1 1 0 0 0 0 0 0 0 0 0 0 0 0 0 10 18 30 44 59 63 73 30 28 12 0 31 0 0 0 0 0 0 0 0 0 4
0 0 0 0 0 0 0 0 0 0 0 0 0 0 1 1 0 0 0 0 0 0 0 51 78 82 81 73 70 71 68 50 3 44 0 0 0 0 0 0 0 0

ECMWFNIL_con_mucape_039.txt.gz
CAPE
1614 1704 1408 1320 900 1041 1255 1433 1312 933 975 825 785 609 568 632 612 578 571 730 800 814 967 1900 1352 1531 1529 1508 1421 1162 1085 1132 1302 936 963 824 1310 892 774 765 1074 898
1582 1315 1214 1048 1470 1236 1208 1142 892 832 778 890 808 726 745 595 571 461 481 565 696 622 804 1103 1764 1633 1503 1406 1559 1318 1303 1427 1437 1304 1433 1529 1497 1531 1296 1006 1066 1643
1368 1337 1265 1314 1482 1144 1094 974 917 939 930 1114 875 837 714 624 517 444 355 378 231 286 729 937 1051 1642 1665 1614 1467 1594 1523 1658 1762 1507 1460 1100 1102 1474 1751 1834 1863 1602
1472 1120 1214 1483 1408 1135 1043 1014 977 1026 1040 792 767 698 692 497 487 495 439 258 269 315 656 764 667 570 607 1118 1628 1408 1628 1725 1687 1673 1491 1242 1365 1399 1558 1210 1414 1176
1402 1297 1215 1476 1219 1047 958 936 930 892 769 735 546 430 356 531 412 360 370 362 330 399 594 746 738 653 553 476 550 1087 1377 1702 1445 1632 1454 1100 1579 1462 1610 1272 1122 1080
1212 916 844 718 697 851 807 838 812 774 679 518 416 270 364 411 327 298 264 286 261 268 310 523 568 686 713 439 458 628 996 1167 1163 1093 1018 1017 1064 1016 1088 1165 786 1013
954 990 735 685 776 811 757 849 773 660 610 527 277 328 406 361 273 281 176 159 121 79 133 262 356 683 654 467 507 584 1254 870 744 867 557 1059 833 1127 1007 1054 722 940
1114 1028 854 752 810 825 788 787 753 753 624 464 430 274 301 168 277 281 107 75 35 28 71 173 205 269 451 464 368 596 798 951 820 505 212 180 201 227 352 882 645 1142
660 840 718 814 882 877 856 776 728 683 493 552 381 214 323 204 265 14 1 11 63 92 131 200 219 293 482 452 380 392 286 364 282 119 97 117 246 257 233 1105 1084 795
699 370 902 781 778 869 1075 888 691 617 461 412 328 154 215 198 42 0 0 62 84 85 188 168 250 454 358 208 149 142 76 75 74 134 139 152 138 16 1 143 322 745
786 1017 994 866 821 809 916 859 699 493 369 401 314 283 165 41 0 8 1 73 184 91 83 134 141 173 124 48 26 24 2 18 13 24 58 8 8 0 1 8 29 96
909 938 768 768 497 692 836 784 650 481 482 676 242 278 70 0 0 0 0 19 0 25 2 3 11 37 51 47 52 44 4 0 1 18 1 1 0 0 0 11 2 6
898 683 689 682 840 815 776 681 602 556 662 483 226 80 1 0 0 0 0 0 0 0 0 0 0 0 4 12 44 41 35 4 2 1 4 0 0 1 6 0 27 2
724 583 594 736 781 734 610 580 600 472 428 175 82 4 0 0 0 0 0 0 0 0 0 0 0 0 0 0 0 9 2 45 17 8 4 5 2 0 0 0 14 12
1106 701 612 713 650 519 537 498 424 213 81 44 2 0 0 0 0 0 0 0 0 0 0 84 44 0 0 0 0 0 13 19 28 24 21 13 2 0 1 1 2 7
985 888 716 572 489 531 534 316 165 54 6 0 0 0 0 0 0 0 0 0 0 0 162 0 0 0 0 0 0 0 0 32 3 33 23 16 2 0 0 0 0 2
644 617 647 604 563 554 457 374 404 810 529 0 0 0 0 0 0 0 0 0 0 25 0 0 0 0 0 0 0 0 0 77 34 0 2 0 0 4 0 0 0 1
184 217 262 261 219 153 155 142 160 235 369 316 207 81 20 16 20 1 5 62 10 0 0 0 0 0 0 0 0 0 0 0 99 0 2 0 2 0 0 0 0 2
0 0 0 0 0 0 0 0 0 0 10 50 141 201 159 209 391 127 24 0 0 0 0 0 0 0 0 0 0 0 0 1 5 0 0 0 22 18 84 41 6 5
152 0 0 0 0 0 0 0 0 0 0 0 2 2 108 85 25 0 0 0 0 0 0 0 0 0 0 0 0 0 0 0 140 6 3 16 3 28 56 80 74 119
0 0 0 0 0 0 0 0 0 0 0 1 2 2 0 1 0 0 0 0 0 0 0 0 0 0 0 0 0 0 0 0 91 26 9 68 89 150 100 169 249 220
9 0 0 0 0 0 0 0 0 0 0 2 4 6 4 0 0 0 0 0 0 0 0 0 0 0 0 0 0 0 0 0 41 50 89 438 570 616 360 612 679 734
0 0 0 0 0 0 0 0 0 0 0 2 6 7 10 6 2 0 0 0 0 0 0 0 0 0 0 0 0 0 0 0 40 20 130 239 298 395 297 473 574 68
0 2 0 0 0 0 0 0 0 0 0 5 8 8 6 3 0 0 0 1 0 0 0 0 0 0 0 0 0 0 0 0 0 4 13 28 61 101 116 154 0 0
5 1 1 0 0 3 2 1 0 0 0 0 1 1 1 0 0 1 3 3 1 0 0 0 0 0 0 0 0 0 0 0 0 0 0 0 0 0 0 4 0 0
7 9 4 3 0 0 1 2 1 1 1 2 1 0 0 0 2 4 5 5 4 1 0 0 0 2 4 8 0 0 0 0 0 0 0 0 0 0 0 0 0 0

ECMWFNIL_con_mucape_042.txt.gz
CAPE
1314 1413 1171 1281 1565 1609 1590 1441 1313 1586 1597 1504 1384 1163 1178 1231 1110 1099 1149 1200 1231 1393 1371 1445 1173 1230 1365 989 870 699 900 1060 669 819 698 655 665 635 983 1248 1096 1286
1606 1570 1053 1259 1801 1589 1984 1846 1392 1449 1323 1236 1338 1293 1172 1093 1100 1076 1001 1069 1076 1005 1222 1308 1472 1371 952 814 1246 704 608 1066 703 858 800 579 713 706 912 977 1230 872
1965 1601 1216 1684 1582 1734 1752 1797 1700 1404 1450 1440 1398 1220 1130 1000 916 1010 789 954 744 929 931 1191 1192 1236 932 738 889 749 1315 1154 1014 776 577 589 870 662 662 709 894 882
1964 1604 1684 1445 1536 1429 1712 1655 1643 1603 1318 1317 1270 1199 1038 873 989 739 691 366 779 828 1088 945 1070 908 816 986 1302 1262 783 732 640 654 624 677 608 614 501 462 709 613
1534 1654 1429 1591 1297 1448 1440 1372 1452 1290 1277 1304 1185 1026 866 872 805 654 695 636 692 724 866 963 873 821 799 960 1059 1208 1441 873 729 613 721 590 386 482 578 728 802 911
1260 1270 1297 1447 1407 1487 1468 1346 1214 1194 1129 904 990 813 738 676 698 518 594 517 518 626 638 821 798 843 806 713 1008 1193 1214 1207 1160 1010 1116 673 762 617 699 1054 1220 1106
1212 1290 1524 1306 1242 1461 1196 1192 1110 884 847 802 703 750 585 550 411 277 305 322 325 321 430 524 726 875 785 698 862 1214 1260 1071 994 831 822 1008 949 867 840 1160 1182 1118
1201 1305 1285 1157 1266 1264 1134 1149 1002 990 871 629 760 558 483 330 322 525 258 173 99 74 321 350 454 662 700 654 647 1060 1088 1073 1128 1095 839 854 804 899 1162 1253 1232 1166
1084 859 827 1060 1445 1321 1125 832 990 907 703 803 545 570 492 480 305 88 40 79 142 244 156 266 274 614 705 625 744 724 702 886 1192 1074 793 484 524 851 1048 1058 1069 1258
1022 767 756 845 1106 1240 1204 1077 972 786 724 542 343 372 388 455 24 18 0 216 150 164 208 256 520 601 493 377 319 460 432 412 457 622 636 522 496 365 785 870 945 949
882 908 885 911 981 1215 1232 1182 973 802 634 435 362 471 330 52 0 65 21 116 296 167 103 226 285 227 139 168 93 227 342 252 263 242 360 336 398 242 610 784 617 959
903 862 1069 1109 1094 1261 1197 1056 840 652 623 482 278 311 97 56 9 4 4 1 26 0 5 8 70 111 61 56 66 128 193 62 309 230 164 163 284 252 210 395 227 411
824 904 948 1148 1103 1181 1145 920 813 684 560 422 419 156 56 58 0 2 52 1 0 0 3 0 0 0 7 34 60 70 86 236 225 123 81 398 11 193 16 51 165 246
871 931 910 1070 1108 1127 974 824 676 704 580 431 225 76 72 5 0 0 0 0 22 46 0 0 0 0 0 0 0 0 153 24 98 58 120 16 109 45 90 36 176 102
716 874 990 941 926 938 921 821 647 632 492 235 105 91 57 0 0 0 0 6 22 0 0 0 0 0 0 0 0 0 5 38 15 22 26 64 2 22 4 47 20 0
388 280 462 891 765 790 687 660 527 443 302 66 31 5 4 0 0 0 4 18 5 0 0 0 0 0 0 0 0 0 0 92 146 0 14 3 20 100 3 53 0 0
250 231 396 372 680 627 528 433 235 298 26 19 15 6 22 2 0 0 0 4 0 0 0 0 0 0 0 0 0 0 0 0 184 149 8 94 6 57 170 147 2 0
374 282 345 288 276 354 447 538 415 399 278 132 122 43 26 32 93 3 0 0 0 0 0 0 0 0 0 0 0 0 0 0 24 34 119 111 10 16 6 8 5 10
367 294 356 321 213 200 298 378 351 336 377 363 370 305 240 183 29 0 0 0 0 0 0 0 0 0 0 0 0 0 0 0 0 73 0 0 6 87 2 101 266 217
300 326 280 268 273 252 155 31 50 75 98 74 36 37 21 0 0 0 0 0 0 0 0 0 0 0 0 0 0 0 0 0 2 191 80 68 124 95 301 239 289 129
241 287 188 269 279 247 95 0 0 0 0 0 0 0 0 0 0 0 0 0 0 0 0 0 0 0 0 0 0 0 0 0 9 86 134 135 94 157 133 178 245 350
187 105 147 140 117 63 0 0 0 0 0 0 0 0 0 0 0 2 0 0 0 0 0 0 0 0 0 0 0 0 0 0 52 23 78 226 429 196 170 435 283 254
81 35 30 29 55 0 0 0 0 0 0 0 0 0 0 0 0 0 0 0 0 0 0 0 0 0 0 0 0 0 0 0 0 16 56 113 163 153 16 201 212 102
20 6 7 2 16 28 3 0 0 0 0 0 0 0 0 0 0 3 4 2 2 0 0 0 0 0 0 0 0 0 0 0 0 8 25 3 88 47 0 0 2 0
0 6 11 11 15 11 5 2 0 0 0 0 0 0 0 0 1 5 9 6 3 0 0 0 0 0 0 0 0 0 0 0 0 0 0 0 0 0 0 0 0 0
1 1 1 5 2 0 1 0 0 0 0 0 2 1 0 0 0 5 9 10 6 0 0 2 0 0 0 0 0 0 0 0 0 0 0 0 0 0 0 0 0 0

ECMWFNIL_con_mucape_045.txt.gz
CAPE
994 1060 787 786 705 792 740 761 657 683 636 813 891 1045 997 842 1082 1150 1205 1256 1297 1046 1063 836 822 712 575 548 770 742 844 1064 1005 952 775 699 647 637 860 899 701 605
1114 1230 1028 916 862 862 898 924 823 819 872 912 1061 794 884 845 707 742 938 928 890 1023 1026 909 816 678 622 562 564 733 840 859 885 773 743 625 624 698 919 907 769 754
1039 1185 1044 1047 947 870 765 803 940 1072 1194 1046 814 718 657 757 734 698 774 855 899 933 922 894 829 868 695 569 597 735 596 581 722 751 634 553 580 666 829 903 844 979
829 1048 1106 1228 1224 1079 889 860 1009 953 886 771 660 541 518 470 502 551 673 890 711 810 773 889 806 709 680 685 552 495 561 535 616 744 554 403 459 636 855 986 949 966
864 912 1016 1135 1070 1056 956 967 898 808 726 646 538 515 463 389 366 250 312 563 520 711 842 807 758 648 642 624 624 561 670 673 657 695 721 460 398 503 710 853 944 922
828 968 1038 928 942 964 853 817 764 672 633 611 580 415 149 107 46 74 99 459 462 501 628 768 666 562 652 653 580 557 591 650 604 627 542 430 355 431 530 694 885 937
802 864 902 787 909 731 718 684 649 605 594 395 118 70 43 77 38 55 6 59 456 486 496 458 625 611 642 497 602 684 660 631 560 533 620 534 453 491 576 524 666 707
762 810 712 750 755 734 697 657 616 571 430 70 25 9 18 2 0 0 0 1 41 436 469 513 462 583 597 558 637 671 679 624 554 530 578 491 438 623 584 728 974 968
690 678 653 872 851 764 686 590 514 214 53 14 0 0 0 0 0 0 0 0 0 0 13 517 488 392 594 803 779 725 751 681 573 574 645 659 596 660 727 944 1131 1046
880 852 826 850 858 774 665 557 327 63 28 6 3 14 0 0 0 0 0 0 0 0 30 376 388 339 350 524 556 720 695 637 588 589 557 516 568 771 875 1020 1133 1052
918 843 825 800 786 712 610 358 57 26 0 1 0 0 0 0 0 0 0 0 0 2 30 52 74 82 183 414 476 525 720 839 754 631 432 548 715 836 1007 1077 973 1094
726 842 763 751 679 621 497 229 50 8 0 0 0 0 0 0 0 0 0 0 0 0 0 0 0 0 0 0 281 378 291 374 643 498 41 104 498 833 1021 722 722 995
522 633 765 620 624 532 388 73 37 5 0 0 0 0 0 0 0 0 0 0 0 0 0 0 0 0 0 0 0 0 1 1 87 88 0 0 0 458 639 666 743 798
43 269 558 592 554 510 332 127 16 0 0 0 0 0 0 0 0 0 0 0 0 0 0 0 0 0 0 0 0 0 0 0 0 0 0 0 183 422 572 646 677 638
209 110 256 454 507 494 309 102 19 0 0 0 0 0 0 0 0 0 0 0 0 0 0 0 0 0 0 0 0 0 0 0 0 0 0 13 85 197 431 533 527 316
219 300 403 460 359 396 298 117 8 0 0 0 0 0 0 0 0 0 0 0 0 0 0 0 0 0 0 0 0 0 0 0 0 0 0 0 0 0 0 0 0 0
262 274 305 347 333 330 274 152 47 0 0 0 0 0 0 0 0 0 0 0 0 0 0 0 0 0 0 0 0 0 0 0 7 4 0 0 8 0 0 0 0 0
357 266 316 380 362 258 194 19 0 0 0 0 0 0 0 0 0 0 0 0 0 0 0 0 0 0 0 0 0 0 0 0 0 8 0 9 4 0 0 0 0 0
97 344 201 279 317 257 238 188 0 0 0 0 0 0 0 0 0 0 0 0 0 0 0 2 2 0 0 0 0 0 0 0 0 0 0 0 0 0 0 0 0 0
252 230 224 280 323 259 178 124 0 0 0 0 0 0 0 0 0 0 0 0 0 0 5 6 4 0 0 0 0 0 0 0 0 0 0 0 10 26 0 0 0 0
6 127 76 143 77 107 125 55 14 0 0 0 0 0 0 0 0 0 0 0 0 4 5 2 0 0 0 0 0 0 0 1 60 16 9 105 82 60 42 2 0 0
43 27 31 102 95 84 31 35 0 0 0 0 0 0 0 0 0 0 0 0 1 3 4 0 0 0 0 0 0 0 0 0 143 134 89 111 123 96 59 44 33 14
32 116 122 133 141 36 48 18 2 0 0 0 0 0 0 0 0 0 0 0 0 0 1 1 0 0 0 0 0 0 0 0 72 63 80 64 113 156 138 106 81 99
11 11 74 71 132 49 40 21 5 0 0 0 0 0 0 0 0 0 0 0 0 0 1 2 4 2 0 0 0 0 0 0 0 0 8 11 60 121 160 174 164 97
6 8 27 80 91 60 41 20 8 2 20 16 0 0 0 0 0 0 0 0 0 0 5 7 9 4 0 0 0 0 0 0 0 0 0 0 0 0 0 0 0 0
0 0 1 11 28 16 2 3 2 0 0 0 0 0 0 0 0 0 0 0 0 2 12 14 9 5 0 0 0 0 0 0 0 0 0 0 0 0 0 0 0 0

ECMWFNIL_con_mucape_048.txt.gz
CAPE
893 822 722 670 641 622 617 660 679 634 658 707 724 774 950 1139 1127 1000 692 952 970 917 704 590 563 531 427 395 533 471 445 537 640 678 636 612 531 443 430 508 486 143
988 940 833 707 656 627 623 665 672 630 599 616 707 754 979 1089 971 870 817 987 1051 990 832 666 576 573 448 493 485 494 482 760 765 759 685 617 638 688 528 509 514 210
752 1054 952 730 601 618 655 679 693 687 623 672 812 912 1048 1025 943 941 1123 1092 952 802 807 807 753 605 487 480 450 542 541 817 858 803 815 738 721 763 753 650 517 344
786 676 901 789 610 600 624 602 710 710 730 800 955 1057 1093 1141 965 1115 1147 994 868 1012 964 910 850 688 575 525 509 696 625 826 952 928 868 733 675 676 685 671 594 471
676 694 757 919 774 673 593 648 746 746 759 925 981 1060 1010 1067 985 1078 1064 914 907 986 1015 920 844 751 641 582 555 707 726 836 955 919 804 699 610 564 672 771 664 468
835 560 733 737 834 714 748 740 777 743 822 954 1089 1028 901 904 800 826 939 974 916 914 954 901 866 829 707 614 507 670 701 696 745 719 723 634 562 542 714 829 728 684
786 573 716 671 705 817 852 877 843 967 1010 1044 997 841 855 862 763 827 872 939 892 898 889 869 783 718 656 649 584 574 558 482 542 672 736 583 396 549 672 748 715 714
719 534 644 560 730 636 823 917 1046 1172 1166 980 650 618 601 623 480 556 752 774 816 849 808 745 663 613 588 564 552 455 496 566 585 616 690 711 504 483 595 710 795 744
601 422 406 498 547 613 796 950 1149 1032 908 660 608 581 499 492 416 596 639 680 798 814 738 669 600 540 562 512 467 496 535 616 638 626 638 609 541 354 447 556 657 798
590 440 420 414 334 535 877 996 988 741 693 642 609 359 0 0 458 526 468 508 584 615 662 611 542 532 533 481 463 518 565 576 607 581 583 579 490 420 458 514 599 631
562 463 456 428 299 550 656 846 746 709 689 462 339 320 0 0 0 149 462 520 539 521 510 524 537 550 516 453 506 542 624 588 582 549 598 600 511 486 586 594 658 750
654 551 468 420 302 386 440 626 773 764 571 314 306 344 262 0 0 0 0 366 477 531 514 473 464 492 495 514 571 583 622 582 530 520 594 620 616 622 691 680 1016 1050
628 445 320 404 418 355 398 505 715 626 395 274 181 0 0 0 0 0 0 0 0 316 479 264 0 0 226 504 507 532 573 544 512 486 525 514 544 643 793 852 1034 1114
525 363 273 300 362 192 143 414 466 398 308 184 150 15 0 0 0 0 0 0 0 0 0 0 0 0 0 252 367 426 514 588 573 502 474 408 392 646 738 844 982 1038
446 378 310 315 364 240 23 365 176 264 205 226 178 13 0 0 0 0 0 0 0 0 0 0 0 0 0 0 0 50 56 55 86 545 491 124 65 580 730 921 880 921
444 477 432 323 159 60 269 6 219 187 177 187 121 0 0 0 0 0 0 0 0 0 0 0 0 0 0 0 0 0 0 0 0 0 0 0 0 0 552 600 602 712
313 521 368 313 292 208 248 216 241 139 158 136 39 0 0 0 0 0 0 0 0 0 0 0 0 0 0 0 0 0 0 0 0 0 0 0 48 436 499 511 505 464
218 272 404 377 336 262 10 199 177 118 156 70 0 0 0 0 0 0 0 0 0 0 0 0 0 0 0 0 0 0 0 0 0 0 0 0 0 140 125 136 0 0
57 221 113 249 353 284 212 218 152 39 72 19 0 0 0 0 0 0 0 0 0 0 0 0 0 0 0 0 0 0 0 0 0 0 0 0 0 0 0 0 0 0
111 36 161 229 158 178 20 105 185 70 7 0 0 0 0 0 0 0 0 0 0 0 0 0 0 0 0 0 0 4 8 0 0 2 0 0 0 0 0 0 0 0
224 3 54 130 207 239 124 91 108 43 3 0 0 0 0 0 0 0 0 0 0 0 0 0 0 0 0 0 1 0 0 0 0 5 1 0 0 0 0 0 0 0
168 131 3 179 46 21 57 22 15 10 0 0 6 0 0 0 3 0 0 0 0 0 0 0 0 0 0 0 0 1 0 0 0 0 0 0 0 0 0 0 0 0
53 127 106 6 10 63 43 28 20 62 13 3 13 2 0 1 3 2 0 0 0 0 0 0 0 0 0 0 0 0 0 0 0 0 0 0 0 0 0 0 0 0
0 17 36 22 6 31 38 136 69 30 1 6 22 6 0 1 3 2 1 0 0 0 0 0 0 0 0 0 10 19 24 0 0 0 0 0 0 0 0 0 0 0
20 23 6 7 20 12 151 93 50 13 0 6 6 2 0 0 2 4 2 0 0 0 0 0 0 0 0 0 0 57 62 58 42 26 23 26 22 18 14 14 32 41
60 30 1 3 2 16 26 16 15 13 2 2 3 5 0 0 2 2 3 1 0 0 0 0 0 3 2 4 2 41 77 88 82 83 90 100 106 100 89 88 86 86

ECMWFNIL_con_mucape_051.txt.gz
CAPE
1214 860 526 900 974 887 797 538 332 330 344 424 508 614 656 746 777 903 1016 1116 1122 1099 1010 839 805 750 731 743 810 785 690 577 503 498 598 657 775 714 589 495 487 512
931 985 911 951 1014 960 814 552 353 314 319 412 446 510 675 735 792 782 844 905 968 939 830 748 760 813 855 838 795 697 670 570 528 538 549 532 682 776 723 550 568 516
878 869 1042 1014 1034 886 693 554 444 388 358 479 609 628 693 754 794 782 870 970 940 887 855 864 889 877 818 742 686 669 667 569 506 555 629 652 594 730 779 678 591 513
685 846 856 960 866 779 744 564 495 466 446 499 597 686 728 769 793 876 925 1042 1034 862 910 1030 949 773 668 650 588 575 652 596 480 553 714 752 707 744 730 658 605 597
838 847 802 716 668 752 767 725 541 506 523 543 539 584 625 680 748 924 1038 1023 894 861 989 1053 933 761 675 639 569 549 601 615 568 636 749 834 791 729 681 575 562 577
912 878 915 566 617 685 671 613 559 514 539 559 548 537 562 620 722 889 951 896 948 1015 1054 924 837 814 778 625 581 577 568 637 652 685 761 855 860 792 759 798 798 709
718 814 844 687 605 618 660 626 495 488 540 574 588 582 570 748 920 973 904 967 1034 1044 915 904 912 885 782 666 612 561 596 736 694 730 857 930 902 803 746 774 814 807
535 612 728 674 603 557 606 480 374 472 482 543 610 636 761 940 1022 1057 976 995 1097 976 839 917 934 892 812 730 667 607 567 705 724 725 855 914 846 746 645 636 727 748
532 679 794 710 684 667 620 496 372 538 536 579 576 720 937 998 1015 1022 946 1022 1010 862 846 864 893 849 835 762 706 643 546 682 763 738 763 771 752 659 576 550 725 803
282 546 759 866 799 768 711 608 493 459 530 542 640 691 982 1037 920 882 830 882 892 823 788 830 828 799 740 680 656 657 611 686 603 520 590 678 724 619 432 500 692 827
276 354 557 762 775 703 636 585 537 350 351 334 479 453 828 956 829 773 718 788 828 796 753 747 745 701 626 576 562 547 507 482 492 538 570 596 656 708 585 493 642 734
343 366 461 615 675 562 572 606 556 378 341 513 319 595 700 750 762 701 626 710 724 706 709 702 644 586 525 514 483 454 465 510 541 596 620 609 613 608 558 418 542 617
331 416 479 482 388 420 493 521 454 353 399 310 73 580 550 507 514 456 336 557 629 613 649 622 545 501 463 460 439 412 453 520 515 522 559 549 532 526 433 366 394 464
319 494 479 420 434 433 416 397 354 370 333 121 73 504 510 526 436 347 484 551 558 554 522 489 457 433 435 449 428 408 472 531 522 487 478 473 531 504 436 467 512 523
354 512 516 492 433 472 423 318 304 164 246 202 140 345 253 228 182 269 372 398 401 414 414 403 389 364 374 68 396 418 492 497 500 459 419 461 505 511 504 545 611 581
421 567 582 563 493 481 463 365 331 268 241 120 0 0 0 0 0 0 0 203 334 356 377 410 370 209 0 0 0 226 378 415 439 426 383 364 378 376 473 568 676 756
378 488 554 565 552 439 466 404 373 325 160 79 6 0 0 0 0 0 0 0 0 11 249 345 326 0 0 0 0 0 0 191 354 389 388 346 217 27 419 550 610 744
270 353 430 528 557 479 418 466 371 289 169 92 0 0 0 0 0 0 0 0 0 0 217 266 62 0 0 0 0 0 0 0 0 0 0 260 8 0 0 328 483 588
252 252 407 452 462 536 476 457 354 197 165 222 196 0 28 120 0 0 0 0 0 80 105 0 0 0 0 0 0 0 0 0 0 0 0 0 0 0 0 304 410 407
313 216 168 277 376 396 484 436 334 196 169 176 116 78 163 108 0 0 0 0 0 51 72 0 0 0 0 0 0 0 0 0 0 0 0 0 0 0 0 100 66 0
0 103 186 100 37 243 383 491 335 139 147 156 133 178 172 0 0 0 0 0 0 0 0 0 0 0 0 0 0 0 0 0 0 0 0 0 0 0 0 0 0 0
0 16 100 222 225 42 61 309 258 189 144 166 148 161 122 33 0 0 0 0 0 0 0 0 0 0 0 0 0 0 0 0 0 0 0 0 0 0 0 0 0 0
0 0 5 96 177 182 10 102 271 186 173 138 113 69 94 44 2 0 0 0 63 72 0 15 73 64 0 0 0 0 0 7 0 0 1 6 0 0 0 0 0 0
0 4 11 34 76 112 38 33 32 48 70 139 65 27 41 27 13 19 0 0 1 0 2 61 70 37 0 0 2 0 0 0 6 10 7 7 6 1 1 0 0 0
0 1 28 31 8 29 14 18 68 40 29 50 54 19 28 26 11 0 0 0 1 3 1 24 22 0 0 0 0 2 0 0 0 0 2 9 9 6 2 0 0 0
0 0 0 56 48 33 40 25 16 13 23 32 89 6 20 17 6 6 0 0 0 0 0 2 2 0 0 0 0 0 0 0 0 0 0 11 11 7 0 11 19 15

ECMWFNIL_con_mucape_054.txt.gz
CAPE
842 908 630 720 882 810 816 733 804 582 480 540 560 530 457 469 596 532 548 634 707 756 769 709 741 806 802 736 674 624 668 764 812 756 706 577 576 659 680 652 613 522
705 663 774 708 733 840 799 658 847 873 670 569 513 512 520 501 565 624 691 709 752 809 803 785 890 859 787 692 666 727 771 749 743 741 713 574 479 601 699 682 610 605
535 634 765 777 770 849 838 885 854 727 693 618 460 432 444 470 519 599 680 702 827 855 890 954 836 768 752 715 693 694 714 729 774 779 692 582 504 541 621 692 562 630
398 416 579 745 694 620 720 767 770 735 630 596 467 382 380 441 529 573 598 650 764 814 871 870 817 724 689 672 696 734 788 802 777 748 670 574 562 594 654 702 692 734
210 118 399 491 588 556 575 622 662 632 637 606 486 421 403 526 560 524 567 637 664 716 766 831 757 750 742 760 762 781 786 752 706 679 637 584 580 600 614 652 670 693
206 147 246 326 390 427 523 549 608 649 703 641 528 458 427 520 604 621 627 644 677 727 816 907 876 749 769 802 724 635 642 637 629 652 625 555 578 684 702 652 633 717
244 265 299 348 317 349 601 680 622 714 753 668 550 528 533 574 595 596 612 598 615 688 817 873 803 767 830 850 706 605 598 570 553 612 630 564 540 689 726 731 734 752
261 291 339 367 405 513 615 644 552 668 720 621 584 553 584 594 573 545 520 527 541 695 725 796 848 898 856 748 709 654 566 539 549 587 621 616 508 590 683 706 727 714
249 250 395 378 356 346 405 556 602 567 661 583 551 589 582 613 620 590 600 590 768 771 772 858 884 808 773 786 751 657 573 559 538 576 656 653 583 611 688 653 688 699
226 212 214 223 194 248 407 508 597 625 627 520 484 537 577 626 640 666 688 757 828 845 863 859 837 731 793 790 748 674 615 572 551 591 722 738 579 632 705 649 638 613
271 197 153 235 237 158 357 573 507 585 587 426 472 547 577 590 584 631 791 882 892 874 833 850 782 684 702 737 719 702 670 624 561 533 617 711 659 661 678 716 701 627
310 220 158 165 234 170 256 465 610 693 663 479 479 517 505 421 235 390 753 880 882 815 762 746 712 633 615 638 640 625 607 596 576 551 623 633 608 629 706 734 622 561
384 325 232 209 266 306 342 469 673 702 658 526 426 455 500 383 282 394 605 761 756 744 677 630 624 606 570 578 542 501 489 491 494 498 563 578 497 551 645 691 662 456
358 352 330 295 308 404 436 581 719 661 583 505 360 349 0 299 361 422 494 621 684 700 640 592 573 585 571 550 498 438 420 402 404 435 466 485 534 580 602 631 649 533
402 308 305 364 391 390 427 489 494 469 512 528 350 314 286 21 335 478 594 611 655 639 496 468 521 569 576 528 459 339 0 372 358 415 479 503 534 572 572 528 516 408
404 345 281 355 436 406 432 479 458 457 438 451 324 301 280 25 360 500 536 572 607 524 405 352 483 526 515 501 444 408 388 368 352 390 459 468 471 488 480 473 413 361
446 368 298 291 435 568 525 511 515 488 458 357 333 324 13 26 382 492 495 496 507 459 361 393 463 448 0 379 380 356 362 372 362 392 444 452 422 452 493 475 423 462
228 377 363 304 300 401 475 495 536 521 492 392 307 290 0 28 348 447 440 391 347 285 339 365 112 144 186 44 188 138 119 266 332 387 408 428 399 392 424 427 443 518
1 148 333 372 322 302 320 376 463 497 504 429 360 190 0 0 248 309 277 205 0 193 117 0 32 289 329 367 372 0 0 0 0 34 352 408 407 380 327 328 439 490
0 2 8 170 322 293 239 290 347 385 460 479 398 296 0 0 0 0 0 0 0 67 0 0 0 0 0 202 122 0 0 0 0 0 176 240 303 331 252 257 349 407
0 1 1 1 0 138 171 119 220 260 358 435 446 390 236 5 0 0 184 34 0 0 0 0 0 0 0 0 0 0 0 0 0 0 0 0 132 231 198 206 289 370
0 0 2 2 1 1 60 1 1 176 214 333 442 397 306 169 108 148 196 163 73 0 0 0 0 0 105 0 0 0 0 0 0 0 0 0 96 165 156 232 299 248
0 0 1 2 1 1 2 30 162 146 8 8 285 443 336 202 145 147 139 145 122 17 0 0 0 0 0 0 79 0 0 0 0 0 0 0 64 120 181 212 130 86
0 0 0 1 1 1 1 0 60 109 27 24 25 133 342 275 174 89 96 118 119 0 0 0 0 0 83 80 90 71 51 22 1 2 0 0 0 113 188 138 79 38
0 0 0 1 1 0 0 7 24 30 13 43 35 24 113 227 190 100 73 76 46 36 1 18 16 0 63 85 80 74 70 62 63 6 7 3 0 103 123 116 75 39
0 0 0 0 4 34 43 25 17 23 15 27 34 22 9 46 144 96 28 52 47 53 5 29 60 66 68 75 79 85 61 45 52 61 12 8 5 44 75 72 56 31

ECMWFNIL_con_mucape_057.txt.gz
CAPE
489 490 459 534 592 621 523 468 452 734 814 676 544 662 700 707 661 536 426 450 428 632 801 720 416 381 461 334 428 466 553 678 776 698 581 580 514 545 581 590 750 781
365 410 486 520 518 581 603 686 722 692 666 673 641 618 622 750 674 631 426 451 420 487 666 669 454 447 464 544 636 625 698 592 623 564 610 542 617 673 656 601 570 496
367 394 506 528 526 515 555 531 473 489 567 749 696 556 592 620 571 332 401 439 458 503 630 479 457 532 649 726 615 667 644 620 580 579 501 640 668 729 707 633 588 647
376 425 421 451 485 458 496 458 424 470 670 700 573 502 640 481 500 438 385 422 436 434 457 511 570 528 484 614 702 614 589 603 546 483 535 592 646 692 688 697 532 575
376 433 416 403 347 361 371 277 288 480 635 666 573 471 596 502 464 451 444 436 497 489 621 613 498 482 452 508 522 450 426 559 604 513 590 602 690 702 650 600 525 588
348 367 372 365 334 293 362 308 266 393 574 626 612 473 432 487 426 422 399 498 558 550 607 608 527 503 547 568 579 630 588 552 578 603 633 640 651 656 618 619 595 632
316 343 477 361 384 338 358 413 399 439 498 545 536 534 473 377 339 365 404 428 559 584 603 572 487 522 586 642 694 578 614 620 608 620 625 611 602 632 597 593 639 743
417 378 374 359 369 328 246 278 295 342 517 558 530 596 538 448 323 379 438 531 637 718 714 536 463 619 631 629 662 658 674 676 560 535 566 541 571 615 580 568 738 677
380 419 381 358 292 293 257 344 433 547 611 582 574 613 566 447 375 421 480 608 679 764 772 562 506 588 588 593 657 695 692 640 566 526 518 518 539 582 570 533 562 600
383 423 431 298 231 268 263 285 389 438 528 500 521 533 544 464 419 518 534 515 618 654 566 564 670 703 756 724 705 714 691 648 601 519 482 500 514 548 541 517 545 607
470 480 424 362 7 270 247 210 259 335 449 446 422 475 543 462 478 498 559 514 646 627 599 729 792 807 761 698 701 712 727 660 596 519 504 484 519 502 529 539 586 572
552 439 421 367 335 16 256 194 171 305 372 438 342 469 450 415 423 496 504 683 784 856 769 774 723 708 682 652 673 694 698 672 616 565 531 498 480 493 488 474 548 565
374 520 458 359 347 6 294 243 210 287 301 374 521 530 484 410 403 450 504 727 1002 1112 1003 936 735 591 575 546 516 553 629 637 613 586 559 501 449 462 477 492 552 607
2 414 487 426 359 354 379 352 338 295 446 548 608 597 556 477 439 439 447 552 1027 1225 1233 944 853 682 598 499 448 469 493 483 496 507 487 500 480 490 486 478 494 538
2 230 457 407 309 343 392 269 292 309 390 416 431 484 491 437 375 390 388 408 639 875 881 868 878 948 731 536 473 391 379 374 393 393 376 399 418 436 460 467 514 557
1 2 308 394 318 333 406 399 354 320 320 348 425 403 446 430 340 304 269 312 459 612 664 692 721 848 475 498 460 500 437 377 352 308 287 330 393 437 460 499 509 532
1 2 2 244 333 303 367 434 397 310 270 371 394 422 450 357 311 305 271 275 432 542 608 600 481 389 392 442 479 460 590 567 505 442 369 321 373 422 475 487 516 516
1 2 1 1 190 262 306 300 309 130 292 308 389 433 393 332 324 319 268 258 392 488 526 528 466 378 335 407 424 366 339 551 524 565 466 442 403 399 414 428 474 462
1 2 1 1 0 137 280 302 261 225 206 251 337 398 425 372 329 304 262 241 350 432 452 435 398 336 301 328 309 319 304 338 598 566 466 525 525 510 500 405 470 457
1 1 1 0 0 0 0 199 292 278 222 247 144 242 382 407 380 329 250 233 296 357 382 342 300 302 284 89 111 130 322 325 380 524 540 598 540 503 510 437 442 368
1 1 1 0 0 0 0 6 6 228 256 189 187 224 306 360 369 362 253 35 137 166 233 246 223 214 195 0 0 83 283 281 134 274 370 422 401 352 364 406 335 357
1 1 1 1 0 0 0 0 6 60 20 216 185 129 214 270 332 317 320 156 0 0 0 52 53 165 0 0 0 34 217 211 24 27 15 2 0 300 364 351 290 295
1 1 1 1 1 1 1 1 1 1 50 100 128 110 112 19 225 286 336 309 223 48 2 154 192 0 0 0 0 0 166 46 0 0 0 0 0 0 176 258 209 226
1 1 1 1 1 2 2 2 2 2 1 58 118 90 38 23 18 19 153 289 296 198 4 71 129 139 0 0 0 0 25 0 0 0 0 0 0 0 141 175 153 210
1 2 2 1 2 2 2 2 2 2 2 1 6 65 22 26 48 39 36 21 139 244 166 99 80 73 105 26 0 0 1 0 0 0 0 10 7 33 101 143 174 216
0 1 2 2 2 2 2 2 2 2 1 1 1 0 2 31 25 26 41 26 14 16 114 130 85 53 75 89 64 80 89 89 68 0 0 16 28 24 61 110 126 63

ECMWFNIL_con_mucape_060.txt.gz
CAPE
638 630 738 866 817 854 969 1067 1064 1061 1115 1192 1189 1165 1190 1171 1163 1506 1251 1081 1029 1202 1227 1262 1200 1300 966 819 730 907 1082 996 432 416 354 635 671 699 740 827 1348 1155
570 693 738 742 753 668 787 806 868 944 966 1113 1116 1054 1003 1074 1427 1523 1157 1086 929 1190 1307 1284 1223 1149 839 790 1004 1081 1043 1017 938 473 371 291 490 398 658 1053 1242 1170
348 510 788 836 896 926 867 901 943 884 680 788 840 834 861 1047 1175 1354 1047 969 890 1060 1192 1174 1253 579 812 1144 1158 1018 1086 890 744 453 433 437 435 424 930 1104 984 938
32 149 421 712 853 938 974 1000 1003 751 690 655 778 722 862 1009 1004 772 994 950 761 828 759 1356 1366 886 724 1049 1158 939 774 586 844 526 554 944 1012 982 1059 1278 711 386
61 22 147 448 752 869 935 911 931 911 682 692 886 996 1138 961 981 948 908 794 675 910 1141 1240 1154 938 1125 1166 1124 1092 1013 970 1021 1035 1104 1125 1116 967 1160 619 531 489
1 80 246 302 654 848 892 916 758 916 871 869 975 1123 1067 859 887 722 851 646 536 723 1002 1180 1124 1300 1126 949 1232 1288 1271 1162 1062 957 1012 1147 1156 1128 983 706 651 842
337 338 350 419 438 668 987 990 888 830 767 945 1002 1156 708 800 770 766 533 738 711 840 959 1112 1398 1357 1009 872 845 915 936 961 973 1090 985 932 808 955 716 812 888 895
360 380 388 384 449 454 724 896 883 854 540 762 747 581 601 621 913 910 707 680 676 473 685 858 744 1133 938 927 930 946 944 927 1144 1124 1078 897 890 879 962 916 1026 1008
162 411 484 435 419 436 469 505 776 709 729 739 501 609 534 708 648 864 697 533 474 409 620 443 849 999 1084 1034 1121 1068 1011 1055 1145 1269 1192 960 910 945 848 868 979 1036
2 1 379 521 528 468 450 386 601 737 695 778 542 522 520 417 552 703 697 876 894 882 788 794 1058 978 1028 1067 1106 1079 1074 1060 1081 1145 1084 1012 1031 948 823 828 971 1150
2 1 118 483 525 527 424 390 534 649 666 349 376 370 383 518 453 355 408 913 700 210 380 629 1082 1160 1100 1090 1106 1146 1135 1135 1127 1112 1138 1066 1031 980 874 948 988 1103
3 2 1 314 562 480 476 421 404 692 768 253 287 177 300 418 454 454 410 402 381 268 249 456 1025 1241 1194 1112 1128 1144 1108 1177 1163 1074 1082 1061 1032 1074 956 1016 1110 1095
3 2 2 0 483 500 433 475 408 534 575 286 156 132 254 353 318 402 408 419 489 558 710 1054 1072 1260 1407 1375 1286 1128 898 974 1106 1116 1047 1142 1171 1065 1081 1082 1133 1120
3 2 2 1 271 517 414 448 396 125 410 356 176 37 278 356 334 248 322 480 326 484 345 533 1027 1173 1404 1420 1219 1107 1149 1296 1324 1222 1041 1177 1265 1260 1229 1208 1152 1218
2 4 2 2 0 397 421 433 445 169 261 314 237 266 287 390 290 318 311 307 724 521 294 226 437 776 1237 1469 1231 928 898 848 1235 1162 1133 1009 955 921 1067 1004 1067 1045
0 1 1 2 1 108 378 402 443 398 224 202 180 274 118 230 230 187 194 184 566 613 454 517 624 672 952 746 660 960 777 865 961 1067 1026 1018 887 861 884 766 860 1035
0 1 2 1 1 1 1 358 410 372 248 178 208 242 252 271 245 155 125 135 593 587 840 696 960 976 999 740 555 618 835 1152 1040 881 1011 960 846 780 826 805 935 885
1 2 1 0 1 2 1 82 311 327 260 67 2 248 297 313 270 235 196 227 266 264 323 347 625 504 847 818 603 620 676 960 1181 1096 945 862 847 801 799 813 895 985
2 2 1 0 2 0 2 1 1 259 251 188 67 170 186 225 297 277 282 240 211 185 124 220 274 462 556 496 496 532 537 556 1001 1149 1120 1172 1198 1124 1055 882 957 972
3 2 2 1 0 1 1 1 1 2 218 257 78 59 1 78 214 303 299 237 188 175 165 87 193 0 317 372 375 484 501 451 475 944 1076 1170 1328 1290 1338 1255 1131 1089
3 3 3 2 0 1 0 0 2 1 2 98 255 167 3 1 118 204 262 254 256 223 179 152 172 232 296 325 317 348 375 346 305 521 856 947 1081 1326 1431 1280 1208 1143
6 6 5 5 4 2 1 0 1 2 2 2 2 193 184 127 1 31 151 202 199 158 178 137 123 181 269 298 292 290 272 292 301 451 660 728 704 1244 1303 1292 1196 1170
11 8 7 6 6 5 4 3 2 2 2 1 1 2 3 139 205 44 63 76 146 157 153 64 10 49 164 229 244 219 197 196 232 340 465 516 716 628 576 1099 1215 1070
10 8 8 10 7 7 8 8 5 4 3 2 2 2 33 63 1 26 28 23 5 20 98 135 112 64 88 149 177 187 115 39 26 258 164 411 280 319 367 385 66 386
3 5 9 9 9 8 8 8 10 7 3 3 2 2 2 0 25 87 102 105 9 5 2 36 77 132 129 90 150 179 70 0 0 75 134 95 49 26 4 0 0 0
2 4 5 6 8 8 10 12 12 8 6 4 2 2 1 1 0 1 2 12 70 72 47 20 13 28 100 102 92 105 129 73 35 70 0 59 0 0 0 0 0 0

ECMWFNIL_con_mucape_063.txt.gz
CAPE
229 383 546 750 905 905 849 958 1065 1157 1064 1041 1441 1549 1194 1443 1128 1285 1757 1485 1220 1081 1284 1186 1060 1030 997 875 1120 1028 655 665 577 498 548 552 649 252 362 445 408 636
31 36 102 286 567 928 1112 1140 1092 1017 1146 1289 1350 1480 1358 1556 1290 1080 1299 1664 1505 1448 1459 1186 580 942 905 625 1102 1362 863 1112 816 1112 919 765 884 520 510 290 256 427
10 26 58 84 206 440 771 1107 1166 1218 1259 1289 1309 1431 1632 1676 1176 774 859 1305 1137 960 747 813 830 1239 1112 1324 1101 542 907 964 986 882 648 554 550 1026 1186 496 400 596
7 9 21 59 134 203 462 868 1116 1186 1136 1279 1222 1150 1321 1480 1470 879 753 1118 854 1076 743 736 884 1083 758 660 594 1109 898 1020 1215 999 883 733 893 706 888 971 702 981
8 9 9 9 14 39 128 433 879 1010 1131 1172 1138 1205 1277 1073 1180 1154 802 753 840 963 623 526 970 1000 744 959 1151 738 1012 1459 1403 1113 1055 1071 1036 810 636 642 725 351
7 6 6 4 5 6 78 248 528 905 1112 1119 1132 1102 1082 1132 1105 969 718 480 549 962 457 410 774 825 815 473 548 776 710 553 610 698 941 1080 1308 1054 893 859 750 590
6 6 4 4 2 3 8 178 355 526 777 1036 1059 1086 976 973 1149 872 709 894 588 466 400 559 805 594 594 683 471 600 603 983 955 1116 818 1019 935 862 703 772 605 588
7 7 8 4 2 3 21 230 12 174 487 756 1023 1035 1071 1122 806 582 509 497 397 381 80 878 1167 726 480 627 417 199 457 418 506 1040 769 694 771 737 696 629 712 881
3 5 5 4 3 3 16 298 247 9 164 533 836 987 998 816 800 557 363 519 425 383 467 574 608 429 487 392 494 386 362 1028 1309 1250 1077 867 762 743 741 806 1171 1135
3 4 5 2 2 2 70 341 279 180 220 259 654 965 692 647 520 463 406 516 530 440 680 739 528 690 615 430 277 297 831 637 958 1009 709 841 732 772 684 734 625 838
2 3 6 4 3 2 2 279 299 161 256 165 339 747 615 498 593 386 238 231 386 473 431 453 401 417 455 361 419 321 353 512 710 708 1051 924 950 802 691 722 658 533
3 5 4 6 3 1 1 240 371 295 217 277 11 386 299 326 326 544 295 284 463 412 399 416 444 350 359 362 440 306 288 492 1122 615 1032 1009 940 947 638 848 948 913
2 4 3 2 3 3 2 0 355 244 126 2 59 253 64 247 311 119 100 352 614 629 410 456 628 601 534 506 228 424 423 476 647 653 806 914 1046 1022 878 759 723 779
2 4 5 3 6 3 3 2 98 234 194 239 142 1 1 0 2 276 167 326 322 409 411 544 418 339 343 291 373 513 413 332 487 719 716 1196 1226 1100 1039 1002 938 804
1 1 3 3 2 3 1 0 0 13 170 65 125 2 4 2 0 3 214 279 282 292 397 376 333 348 417 398 426 339 352 698 580 1104 1334 1089 1064 1219 1043 631 615 823
3 2 3 1 5 2 1 4 0 0 71 2 102 144 140 3 158 163 175 206 241 189 287 310 276 237 244 310 336 279 308 361 450 1124 827 1298 1258 1106 1043 985 880 1249
3 3 4 2 2 4 4 2 2 1 0 55 71 3 95 89 6 68 134 174 146 176 254 184 193 305 295 328 360 378 400 106 105 289 523 549 948 1283 1232 1182 1249 1081
5 4 4 4 4 4 3 4 2 2 1 1 1 2 40 5 22 16 52 128 126 130 144 206 268 158 216 308 399 437 372 376 264 214 410 796 1001 932 861 858 794 951
6 5 5 5 6 6 5 8 4 2 1 1 1 2 3 58 8 8 8 88 137 132 111 101 201 212 228 339 410 507 482 494 447 452 636 500 578 937 455 754 810 912
1 5 5 4 5 8 6 8 6 6 4 4 2 1 0 74 112 11 4 6 71 124 89 42 166 184 174 235 373 450 515 496 488 462 404 714 613 459 667 675 812 1002
0 1 6 6 6 8 10 9 7 5 5 4 3 2 1 0 0 124 35 4 36 38 131 85 57 136 162 190 253 324 369 399 446 494 426 549 810 648 443 738 901 873
0 0 3 3 7 8 8 9 9 9 7 6 7 4 2 0 0 0 29 2 5 15 136 141 120 137 172 202 219 252 332 335 358 403 412 441 646 892 521 420 425 820
0 2 1 1 7 6 7 7 8 7 9 9 8 8 7 4 3 1 0 0 2 10 16 119 167 126 166 131 154 251 274 281 269 294 293 276 565 489 629 468 450 407
3 1 4 2 4 4 7 8 10 12 11 11 10 8 8 8 4 2 3 0 2 2 19 41 24 52 37 24 14 61 152 188 236 225 222 183 340 642 631 397 270 387
3 7 4 3 2 4 6 4 6 8 9 7 9 10 11 12 7 7 5 4 2 2 1 2 27 62 66 68 27 12 64 111 143 184 177 172 118 240 442 260 148 337
8 10 7 6 4 4 5 8 0 2 6 6 6 7 8 8 5 8 9 8 4 3 0 2 0 9 46 63 39 20 60 88 91 94 117 96 67 85 81 8 0 10

ECMWFNIL_con_mucape_066.txt.gz
CAPE
20 16 23 32 47 45 167 136 345 775 1071 1100 1084 1103 1175 1469 1514 1599 1469 1381 1258 1104 1113 1058 1023 825 735 626 514 501 540 618 559 556 585 490 382 543 501 460 413 218
12 12 15 22 23 14 8 12 80 196 680 1080 1092 1180 1269 1291 1423 1451 1245 1144 1419 1224 1010 954 899 839 858 916 738 658 844 732 542 578 575 466 282 434 483 609 435 238
9 10 13 13 14 15 15 2 5 109 294 676 1040 1176 1140 1114 1365 1458 1192 1168 1061 1211 1090 797 705 650 628 806 799 667 744 668 474 439 393 325 375 406 501 576 625 493
8 9 11 13 14 11 10 9 10 24 102 256 526 934 966 986 1103 1174 1097 1170 1098 1022 817 610 786 692 768 755 694 501 689 723 582 528 465 509 462 419 502 769 840 618
8 6 8 11 12 10 11 7 4 3 4 32 116 224 507 891 914 894 1038 888 950 1025 911 775 753 712 618 542 604 590 703 713 630 523 434 497 424 346 378 516 691 584
8 3 3 2 8 10 7 2 0 2 2 4 1 27 186 437 733 795 818 881 804 680 594 660 553 470 443 317 398 424 469 623 506 480 453 474 420 322 320 396 500 627
8 10 10 10 9 11 7 2 2 1 4 6 6 9 32 203 598 701 710 734 647 593 551 499 466 369 440 444 397 375 400 465 435 509 514 502 317 348 356 297 373 500
9 10 11 11 12 13 8 1 2 1 3 4 8 28 31 92 458 548 504 488 426 379 333 311 351 354 441 503 380 408 558 435 415 427 422 399 440 482 328 343 327 710
5 6 8 10 10 15 10 3 1 1 2 5 12 30 25 17 19 70 49 102 148 232 274 235 190 306 370 381 349 363 416 424 403 344 406 346 353 349 317 286 290 396
2 2 7 8 7 12 11 4 4 1 2 2 6 17 31 5 54 0 0 0 2 133 251 276 266 321 360 342 361 358 341 427 414 408 349 345 314 327 284 254 212 521
2 4 6 4 6 10 12 8 1 1 1 2 11 28 33 26 0 0 0 0 1 266 394 355 132 275 284 286 323 371 375 376 336 319 347 355 310 336 358 274 235 373
1 2 6 5 6 8 10 6 4 2 1 0 5 24 31 7 1 0 3 0 2 267 390 371 344 358 379 338 280 287 259 311 289 273 278 257 292 316 250 270 474 447
3 5 6 6 6 6 6 5 2 2 1 0 0 2 18 32 1 0 1 3 102 65 290 302 317 303 273 287 266 307 299 266 234 221 345 411 313 359 294 289 357 431
3 2 4 4 4 4 6 6 4 3 1 0 0 0 8 10 2 2 9 20 113 49 98 134 234 190 150 174 251 266 292 308 317 286 233 250 305 376 325 269 276 371
2 4 5 3 4 4 4 5 7 6 4 1 0 0 0 5 1 2 2 11 59 24 33 65 83 62 52 81 103 174 280 340 315 326 275 367 286 229 236 239 295 303
0 4 5 5 4 4 6 6 6 6 6 4 1 0 0 0 0 0 1 4 10 28 12 13 6 5 19 60 115 147 188 229 290 267 221 249 304 252 280 288 286 251
0 1 4 3 4 5 7 6 6 7 6 6 3 0 0 0 0 1 4 2 4 10 22 11 14 4 0 12 66 135 164 224 249 317 325 228 300 293 247 262 244 254
0 0 0 2 4 4 4 6 8 7 6 7 7 4 2 0 0 0 0 2 5 1 8 24 62 16 3 1 15 77 190 220 244 290 273 277 352 493 435 274 245 268
0 0 0 0 1 4 10 8 8 8 8 10 9 11 7 4 0 0 0 0 1 9 4 13 29 50 10 17 55 44 47 24 92 236 283 314 373 390 476 408 234 252
0 0 0 0 0 1 4 5 6 8 11 9 10 10 11 6 6 1 0 0 0 0 2 3 8 7 32 46 28 32 43 64 120 179 262 338 364 368 385 332 300 217
0 0 0 1 0 0 1 1 2 5 7 10 10 10 9 8 11 8 5 2 1 0 0 1 5 1 12 18 2 0 4 51 96 212 288 318 302 265 319 211 272 275
0 0 0 0 0 0 1 2 4 3 6 6 8 10 10 5 1 12 10 7 4 0 0 0 0 0 0 5 17 0 0 0 61 156 226 255 247 207 164 160 118 0
0 0 0 1 0 0 0 3 2 4 10 4 3 6 6 4 7 8 12 14 13 4 1 1 2 0 0 1 2 1 9 73 116 91 145 194 206 185 143 119 0 0
0 1 0 1 0 1 1 0 1 2 4 4 1 1 3 2 9 11 7 12 12 14 15 6 5 2 0 0 0 4 6 6 40 125 138 164 167 159 90 88 74 10
0 1 2 2 1 4 2 0 0 4 5 4 5 3 2 1 2 1 2 1 1 1 6 10 8 5 0 0 1 0 2 6 4 26 32 88 87 55 54 62 69 10
1 1 5 3 0 5 3 0 0 0 1 1 2 1 1 2 4 3 2 2 1 0 0 4 6 0 0 0 1 1 0 1 7 35 46 28 37 49 59 48 42 39

ECMWFNIL_con_mucape_069.txt.gz
CAPE
0 3 2 7 8 1 0 0 0 0 3 7 0 0 68 286 395 523 634 814 929 903 875 904 856 818 755 672 605 558 612 630 536 412 525 497 509 612 594 706 629 469
10 10 15 17 17 13 6 1 0 0 0 0 0 0 0 59 42 188 439 594 622 701 789 732 681 709 680 584 540 484 470 473 486 428 465 484 478 564 562 525 559 542
10 13 16 16 18 18 13 4 0 0 0 0 0 0 0 8 17 72 161 379 438 507 533 587 569 535 492 465 486 472 392 359 284 249 378 377 354 544 613 525 471 492
10 11 14 18 18 19 17 3 3 2 5 5 5 2 1 3 5 14 72 302 273 281 301 365 387 382 371 409 470 438 336 326 322 281 273 151 274 275 413 500 521 442
5 7 10 14 22 24 16 2 4 4 4 8 9 7 9 6 4 4 3 8 1 1 5 32 104 184 238 284 316 390 404 355 296 252 132 205 212 165 349 430 403 398
4 7 10 14 17 13 10 2 2 2 5 6 6 8 10 12 10 4 2 0 0 1 0 0 86 30 96 162 241 289 296 289 242 272 241 266 273 329 466 517 458 404
2 4 3 5 5 8 10 0 1 3 6 2 7 7 8 6 7 5 4 0 2 3 5 48 12 59 115 168 206 263 306 344 377 314 199 164 216 246 348 517 516 458
3 1 0 0 3 5 8 1 0 1 2 6 7 6 7 6 7 4 3 0 4 16 78 76 132 198 6 9 116 278 326 368 382 217 152 56 147 152 296 411 442 375
0 0 0 0 0 3 5 1 0 0 1 1 5 4 5 4 4 3 3 3 5 12 41 108 12 9 2 2 2 48 58 87 37 45 185 226 188 309 378 322 328 320
0 0 0 0 0 2 2 2 1 1 0 0 0 2 3 6 4 4 4 3 8 4 14 43 10 6 1 1 206 310 268 45 172 170 62 124 325 257 213 238 103 298
0 0 0 0 1 2 2 3 2 1 0 0 0 0 0 4 3 3 4 2 4 5 3 2 1 0 0 0 126 246 282 254 206 63 78 123 131 163 196 233 250 284
0 0 0 1 3 4 4 4 3 2 0 0 0 0 1 0 2 3 5 3 3 6 6 3 1 0 0 0 1 37 134 234 271 222 176 110 222 238 224 202 218 279
0 0 0 2 5 6 7 7 3 2 1 0 0 0 0 0 0 2 3 3 2 7 6 4 1 0 0 0 1 1 7 97 241 294 301 293 256 242 234 262 310 323
0 0 0 1 5 5 5 6 6 4 4 2 0 0 0 0 0 0 0 1 4 5 5 4 4 1 0 0 0 0 1 14 115 218 270 314 302 194 182 198 237 286
0 0 0 0 0 0 1 2 3 5 4 4 2 1 0 0 0 0 0 0 2 4 4 5 6 4 1 0 0 0 0 1 53 104 202 256 239 212 185 223 197 151
0 0 0 0 0 0 0 0 0 0 1 3 3 3 3 2 0 0 0 0 1 3 5 6 2 1 4 9 2 0 0 0 11 81 177 211 234 252 216 322 318 220
0 0 0 0 0 0 0 0 0 0 0 0 0 0 1 6 7 4 3 0 0 4 6 7 3 2 1 5 24 4 0 0 0 28 113 130 154 160 271 301 162 275
0 0 0 0 0 0 0 0 0 0 0 0 0 0 0 2 12 16 12 4 0 3 8 7 2 0 2 0 17 30 8 0 0 8 36 40 55 110 113 110 183 206
0 0 0 0 0 0 0 0 0 0 0 0 0 0 0 0 3 12 12 10 3 4 10 7 2 0 0 0 2 7 13 10 1 13 20 34 46 62 83 105 130 183
0 0 0 0 0 0 0 0 0 0 0 0 0 0 0 0 0 5 5 2 1 1 2 2 0 0 0 0 0 2 10 0 1 2 6 16 35 37 44 69 115 134
0 0 0 0 0 0 0 0 0 0 0 0 0 0 0 0 0 2 2 0 0 0 0 0 0 0 0 0 0 0 0 0 0 3 2 9 9 18 31 65 112 112
0 0 0 0 0 0 0 0 0 0 0 0 0 0 0 0 0 2 0 0 0 0 0 0 0 0 0 0 0 0 0 0 3 10 4 7 7 10 12 43 63 92
0 0 0 0 0 0 0 0 0 0 0 0 0 0 0 0 1 1 1 0 0 0 0 0 0 0 0 0 0 0 0 0 1 1 2 2 6 8 8 5 43 83
0 0 0 0 0 0 0 0 0 0 0 0 0 0 0 0 0 4 3 2 0 0 0 0 0 0 0 0 0 0 0 0 1 1 2 2 7 6 4 4 8 42
0 0 0 0 0 0 0 0 0 0 0 0 0 0 0 0 0 7 9 7 3 0 0 0 0 0 0 0 0 0 0 0 0 1 3 1 2 7 4 5 9 10
0 0 0 0 0 0 0 0 0 0 0 0 0 0 0 0 0 0 4 3 1 0 0 0 0 0 0 0 0 0 0 0 0 1 1 1 2 3 4 24 14 8

ECMWFNIL_con_mucape_072.txt.gz
CAPE
0 0 0 1 6 6 1 0 0 0 0 0 0 0 1 1 2 4 2 4 6 7 8 8 8 30 98 184 277 326 355 355 354 341 327 348 347 346 333 228 223 230
0 2 9 6 9 9 2 1 0 0 0 0 0 0 1 0 3 0 0 1 3 4 3 4 4 4 4 26 66 115 169 209 237 231 229 221 182 180 203 216 272 362
0 5 9 6 7 4 1 1 1 0 0 0 0 0 0 4 0 0 1 3 0 0 0 0 0 2 2 4 31 72 116 153 157 148 140 137 145 224 224 233 239 288
0 2 7 6 5 1 0 0 1 0 0 0 0 0 1 3 2 4 2 0 0 0 0 0 0 0 3 5 26 24 64 65 76 109 147 165 197 207 166 114 180 141
0 0 2 7 4 1 1 0 0 0 2 2 4 7 4 4 6 2 2 2 1 0 0 1 5 0 6 48 45 52 33 32 93 137 162 201 199 201 206 198 166 110
0 0 0 4 2 0 0 0 0 1 2 3 2 5 7 6 5 1 3 5 1 0 2 4 4 0 0 3 29 7 6 22 48 76 200 208 232 233 220 209 166 155
0 0 0 0 0 1 0 0 0 0 0 1 6 6 7 6 7 5 6 4 1 0 1 1 2 8 0 1 3 1 13 3 3 3 11 171 186 225 221 216 178 124
0 0 0 0 0 0 0 0 0 0 0 0 2 3 4 6 5 5 4 4 3 2 1 0 0 0 0 0 0 0 1 7 4 1 2 4 149 124 173 230 45 133
0 0 0 0 0 0 0 0 0 0 0 0 0 1 2 2 2 5 4 6 4 2 1 0 0 0 0 0 0 0 0 1 2 1 3 2 5 74 103 62 46 31
0 0 3 4 2 1 0 1 0 0 0 0 0 0 0 1 2 3 2 5 4 4 1 0 0 0 0 0 0 0 0 0 1 2 3 2 2 4 58 72 26 54
0 0 0 1 2 3 1 4 6 2 1 0 0 0 0 0 0 2 2 2 3 1 1 0 0 0 0 0 0 0 0 0 0 0 13 72 137 93 6 80 209 210
0 0 0 0 0 0 0 1 3 0 0 2 0 0 0 0 0 0 3 3 3 2 1 0 0 1 0 0 0 0 0 0 0 1 2 74 168 182 160 160 39 43
0 0 0 0 0 0 0 0 0 0 0 0 3 1 0 0 0 0 3 3 3 2 1 0 0 0 0 0 0 0 0 0 0 0 0 12 64 124 178 135 122 113
0 0 0 0 0 0 0 0 0 0 0 0 1 12 6 0 0 0 0 2 4 1 1 0 0 0 0 0 0 0 0 0 0 0 0 0 13 58 134 188 167 177
0 0 0 0 0 0 0 0 0 0 0 0 0 1 7 0 0 0 0 0 0 0 0 0 0 0 0 0 0 0 0 0 0 0 0 0 1 24 101 218 260 300
0 0 0 0 0 0 0 0 0 0 0 0 0 0 0 0 0 0 0 0 0 0 0 0 0 0 1 0 0 0 0 0 0 0 0 0 8 9 32 62 160 174
0 0 0 0 0 0 0 0 0 0 0 0 0 0 0 0 0 0 0 0 0 0 0 0 0 0 0 0 0 0 0 0 2 3 5 9 9 7 7 19 63 126
0 0 0 0 0 0 0 0 0 0 0 0 0 0 0 0 0 0 0 0 0 0 0 0 0 0 0 0 0 0 0 0 0 1 6 6 8 5 8 8 32 62
0 0 0 0 0 0 0 0 0 0 0 0 0 0 0 0 0 0 0 0 0 0 0 0 0 0 0 0 0 0 0 0 0 1 3 4 4 3 4 4 14 28
0 0 0 0 0 0 0 0 0 0 0 0 0 0 0 0 0 0 0 0 0 0 0 0 0 0 0 0 0 0 0 0 0 1 0 0 2 7 3 4 6 10
0 0 0 0 0 0 0 0 0 0 0 0 0 0 0 0 0 0 0 0 0 0 0 0 0 0 0 0 0 0 0 0 0 0 0 0 1 1 1 2 2 5
0 0 0 0 0 0 0 0 0 0 0 0 0 0 0 0 0 0 0 0 0 0 0 0 0 0 0 0 0 0 0 0 0 0 0 0 0 0 1 8 10 6
0 0 0 0 0 0 0 0 0 0 0 0 0 0 0 0 0 0 0 0 0 0 0 0 0 0 0 0 0 0 0 0 0 0 1 0 0 0 1 2 2 4
0 0 0 0 0 0 0 0 0 0 0 0 0 0 0 0 0 0 0 0 0 0 0 0 0 0 0 0 0 0 0 0 0 1 1 2 0 0 0 0 2 5
0 0 0 0 0 0 0 0 0 0 0 0 0 0 0 0 0 0 0 0 0 0 0 0 0 0 0 0 0 0 0 0 0 1 1 2 2 1 0 0 1 2
0 0 0 0 0 0 0 0 0 0 0 0 0 0 0 0 0 0 0 0 0 0 0 0 0 0 0 0 0 0 0 0 0 2 2 1 2 3 1 0 1 1

ECMWFNIL_con_mucape_075.txt.gz
CAPE
13 0 0 0 0 1 2 1 2 3 2 4 3 3 3 4 3 3 3 2 1 1 0 0 0 0 0 0 1 4 4 32 143 185 245 306 311 302 300 290 266 232
0 0 0 0 0 1 2 3 2 4 3 1 0 2 2 2 2 0 1 2 2 1 1 0 0 0 0 0 1 2 4 3 7 25 106 172 180 150 124 108 103 108
0 0 0 0 0 0 1 1 2 2 3 1 1 2 3 2 3 2 3 4 2 2 1 0 0 0 0 0 0 2 1 2 4 4 6 9 46 131 152 157 174 148
0 0 0 0 0 0 0 0 0 0 1 0 0 1 4 4 6 5 4 2 2 2 1 0 0 0 0 0 0 0 0 1 3 4 4 5 7 22 152 211 198 193
0 0 0 0 0 0 0 0 0 0 0 0 1 4 4 5 4 3 2 4 4 2 0 0 0 0 0 0 0 2 2 0 1 2 2 5 9 8 10 92 158 191
0 0 0 0 0 0 0 0 0 0 0 0 0 1 1 2 1 3 4 4 2 2 0 0 0 0 0 0 0 0 0 0 0 1 1 2 5 7 10 12 52 143
0 0 0 0 0 0 0 0 0 0 0 0 0 0 0 0 0 0 1 1 0 0 0 0 0 0 0 0 0 0 0 0 0 0 1 1 5 7 7 8 6 15
0 0 0 0 0 0 0 0 0 0 0 0 0 0 0 0 0 0 2 0 0 0 0 0 0 0 0 0 0 0 0 2 1 1 1 1 1 5 7 13 4 5
0 0 0 0 0 0 0 0 0 0 0 0 0 0 0 0 0 0 1 0 0 0 0 0 0 0 0 0 0 0 1 0 0 0 0 0 0 2 4 6 12 4
0 0 0 0 0 0 0 0 0 0 0 0 0 0 0 0 0 0 0 0 0 0 0 0 0 0 0 0 0 0 0 0 0 0 0 0 0 1 3 7 47 83
0 0 0 0 0 0 0 0 0 1 1 0 0 0 0 0 0 0 0 0 0 0 0 0 0 0 0 0 0 0 0 0 0 0 0 0 0 0 2 5 29 85
0 0 0 0 0 0 0 0 0 0 4 5 0 0 0 0 0 0 0 0 0 0 0 0 0 0 0 0 0 0 0 0 0 0 0 0 0 0 2 12 11 28
0 0 0 0 0 0 0 0 0 0 0 0 0 0 0 0 0 0 0 0 0 0 0 0 0 0 0 0 0 0 0 0 0 0 1 5 6 8 5 7 10 10
0 0 0 0 0 0 0 0 0 0 0 0 0 0 0 0 0 0 0 0 0 0 0 0 0 0 0 0 0 0 0 0 0 0 3 4 4 2 6 7 9 8
0 0 0 0 0 0 0 0 0 0 0 0 0 0 0 0 0 0 0 0 0 0 0 0 0 0 0 1 0 0 0 0 0 0 4 4 4 3 2 2 4 5
0 0 0 0 0 0 0 0 0 0 0 0 0 0 0 0 0 0 0 0 0 0 0 0 0 0 0 0 0 1 0 0 0 0 0 0 3 1 1 1 1 3
0 0 0 0 0 0 0 0 0 0 0 0 0 0 0 0 0 0 0 0 0 0 0 0 0 0 0 0 0 0 0 0 0 0 0 0 0 1 1 1 1 1
0 0 0 0 0 0 0 0 0 0 0 0 0 0 0 0 0 0 0 0 0 0 0 0 0 0 0 0 0 0 0 0 0 0 0 0 0 0 1 1 1 1
0 0 0 0 0 0 0 0 0 0 0 0 0 0 0 0 0 0 0 0 0 0 0 0 0 0 0 0 0 0 0 0 0 0 2 0 0 0 1 1 1 2
0 0 0 0 0 0 0 0 0 0 0 0 0 0 0 0 0 0 0 0 0 0 0 0 0 0 0 0 0 0 0 0 0 0 0 1 1 0 1 1 1 3
0 0 0 0 0 0 0 0 0 0 0 0 0 0 0 0 0 0 0 0 0 0 0 0 0 0 0 0 0 0 0 0 0 0 0 0 1 1 0 0 1 3
0 0 0 0 0 0 0 0 0 0 0 0 0 0 0 0 0 0 0 0 0 0 0 0 0 0 0 0 0 0 0 0 0 0 0 0 0 1 1 1 1 2
0 0 0 0 0 0 0 0 0 0 0 0 0 0 0 0 0 0 0 0 0 0 0 0 0 0 0 0 0 0 0 0 0 0 1 1 0 1 1 1 2 2
0 0 0 0 0 0 0 0 0 0 0 0 0 0 0 0 0 0 0 0 0 0 0 0 0 0 0 0 0 0 0 0 0 1 1 1 1 1 0 0 2 6
0 0 0 0 0 0 0 0 0 0 0 0 0 0 0 0 0 0 0 0 0 0 0 0 0 0 0 0 0 0 0 0 0 0 1 1 1 0 0 0 0 3
0 0 0 0 0 0 0 0 0 0 0 0 0 0 0 0 0 0 0 0 0 0 0 0 0 0 0 0 0 0 0 0 0 0 0 1 1 2 2 1 2 2